| time (UTC) | temp F | wind direction | speed MPH | gust MPH | rain 1hr in | rain 24hr in | rain mn in | humidity % | barometer mb |
| 20260509185403 | 61 | 76 | 1.0 | 2.0 | 0.00 | 0.01 | 0.01 | 75 | 1013.3 |
| 20260509185306 | 61 | 76 | 2.0 | 3.0 | 0.00 | 0.01 | 0.01 | 75 | 1013.3 |
| 20260509185200 | 61 | 76 | 0.0 | 3.0 | 0.00 | 0.01 | 0.01 | 74 | 1013.3 |
| 20260509185005 | 62 | 76 | 2.0 | 3.0 | 0.00 | 0.01 | 0.01 | 74 | 1013.3 |
| 20260509184900 | 62 | 76 | 0.0 | 4.0 | 0.00 | 0.01 | 0.01 | 73 | 1013.3 |
| 20260509184803 | 62 | 76 | 0.0 | 4.0 | 0.00 | 0.01 | 0.01 | 72 | 1013.3 |
| 20260509184705 | 62 | 76 | 0.0 | 4.0 | 0.00 | 0.01 | 0.01 | 72 | 1013.3 |
| 20260509184600 | 62 | 76 | 1.0 | 4.0 | 0.00 | 0.01 | 0.01 | 71 | 1013.3 |
| 20260509184503 | 62 | 76 | 1.0 | 4.0 | 0.00 | 0.01 | 0.01 | 71 | 1013.3 |
| 20260509184403 | 62 | 76 | 1.0 | 4.0 | 0.00 | 0.01 | 0.01 | 71 | 1013.3 |
| 20260509184300 | 63 | 76 | 1.0 | 4.0 | 0.00 | 0.01 | 0.01 | 70 | 1013.3 |
| 20260509184204 | 63 | 76 | 2.0 | 4.0 | 0.00 | 0.01 | 0.01 | 69 | 1013.3 |
| 20260509184103 | 63 | 76 | 2.0 | 4.0 | 0.00 | 0.01 | 0.01 | 69 | 1013.3 |
| 20260509184001 | 63 | 76 | 3.0 | 4.0 | 0.00 | 0.01 | 0.01 | 68 | 1013.3 |
| 20260509183903 | 63 | 76 | 3.0 | 4.0 | 0.00 | 0.01 | 0.01 | 68 | 1013.3 |
| 20260509183802 | 63 | 84 | 2.0 | 5.0 | 0.00 | 0.01 | 0.01 | 68 | 1013.3 |
| 20260509183706 | 63 | 84 | 3.0 | 5.0 | 0.00 | 0.01 | 0.01 | 67 | 1013.3 |
| 20260509183603 | 64 | 84 | 3.0 | 5.0 | 0.00 | 0.01 | 0.01 | 67 | 1013.4 |
| 20260509183502 | 64 | 84 | 3.0 | 5.0 | 0.00 | 0.01 | 0.01 | 66 | 1013.3 |
| 20260509183400 | 64 | 84 | 5.0 | 5.0 | 0.00 | 0.01 | 0.01 | 66 | 1013.4 |
| 20260509183303 | 64 | 84 | 3.0 | 5.0 | 0.00 | 0.01 | 0.01 | 66 | 1013.4 |
| 20260509183204 | 64 | 84 | 3.0 | 5.0 | 0.00 | 0.01 | 0.01 | 66 | 1013.4 |
| 20260509183104 | 64 | 84 | 3.0 | 5.0 | 0.00 | 0.01 | 0.01 | 66 | 1013.3 |
| 20260509183006 | 64 | 84 | 3.0 | 5.0 | 0.00 | 0.01 | 0.01 | 66 | 1013.3 |
| 20260509182904 | 65 | 84 | 2.0 | 5.0 | 0.00 | 0.01 | 0.01 | 66 | 1013.4 |
| 20260509182801 | 65 | 84 | 3.0 | 5.0 | 0.00 | 0.01 | 0.01 | 65 | 1013.3 |
| 20260509182703 | 65 | 84 | 3.0 | 5.0 | 0.00 | 0.01 | 0.01 | 65 | 1013.3 |
| 20260509182602 | 65 | 84 | 3.0 | 5.0 | 0.00 | 0.01 | 0.01 | 65 | 1013.4 |
| 20260509182501 | 65 | 84 | 5.0 | 5.0 | 0.00 | 0.01 | 0.01 | 65 | 1013.4 |
| 20260509182403 | 65 | 84 | 3.0 | 6.0 | 0.00 | 0.01 | 0.01 | 65 | 1013.4 |
| 20260509182300 | 65 | 84 | 5.0 | 6.0 | 0.00 | 0.01 | 0.01 | 65 | 1013.4 |
| 20260509182200 | 65 | 103 | 3.0 | 6.0 | 0.00 | 0.01 | 0.01 | 65 | 1013.4 |
| 20260509182103 | 65 | 103 | 3.0 | 6.0 | 0.00 | 0.01 | 0.01 | 65 | 1013.4 |
| 20260509182006 | 65 | 103 | 2.0 | 6.0 | 0.00 | 0.01 | 0.01 | 65 | 1013.4 |
| 20260509181900 | 66 | 98 | 2.0 | 6.0 | 0.00 | 0.01 | 0.01 | 64 | 1013.3 |
| 20260509181702 | 66 | 98 | 2.0 | 6.0 | 0.00 | 0.01 | 0.01 | 64 | 1013.3 |
| 20260509181600 | 66 | 97 | 5.0 | 6.0 | 0.00 | 0.01 | 0.01 | 65 | 1013.3 |
| 20260509181504 | 66 | 95 | 3.0 | 6.0 | 0.00 | 0.01 | 0.01 | 64 | 1013.3 |
| 20260509181403 | 66 | 98 | 3.0 | 6.0 | 0.00 | 0.01 | 0.01 | 64 | 1013.3 |
| 20260509181300 | 66 | 100 | 5.0 | 6.0 | 0.00 | 0.01 | 0.01 | 64 | 1013.3 |
| 20260509181207 | 67 | 63 | 2.0 | 5.0 | 0.00 | 0.01 | 0.01 | 64 | 1013.3 |
| 20260509180903 | 67 | 63 | 3.0 | 5.0 | 0.00 | 0.01 | 0.01 | 64 | 1013.2 |
| 20260509180803 | 67 | 63 | 3.0 | 5.0 | 0.00 | 0.01 | 0.01 | 64 | 1013.2 |
| 20260509180700 | 67 | 63 | 2.0 | 5.0 | 0.00 | 0.01 | 0.01 | 63 | 1013.2 |
| 20260509180604 | 67 | 63 | 3.0 | 5.0 | 0.00 | 0.01 | 0.01 | 63 | 1013.2 |
| 20260509180502 | 67 | 63 | 3.0 | 5.0 | 0.00 | 0.01 | 0.01 | 62 | 1013.2 |
| 20260509180400 | 67 | 63 | 2.0 | 5.0 | 0.00 | 0.01 | 0.01 | 62 | 1013.2 |
| 20260509180302 | 67 | 63 | 3.0 | 5.0 | 0.00 | 0.01 | 0.01 | 62 | 1013.2 |
| 20260509180200 | 67 | 63 | 3.0 | 5.0 | 0.00 | 0.01 | 0.01 | 61 | 1013.2 |
| 20260509180122 | 67 | 63 | 2.0 | 5.0 | 0.00 | 0.01 | 0.01 | 61 | 1013.2 |
| 20260509180007 | 67 | 63 | 2.0 | 5.0 | 0.00 | 0.01 | 0.01 | 60 | 1013.2 |
| 20260509175900 | 68 | 63 | 2.0 | 5.0 | 0.00 | 0.01 | 0.01 | 60 | 1013.2 |
| 20260509175802 | 68 | 71 | 4.0 | 5.0 | 0.00 | 0.01 | 0.01 | 60 | 1013.2 |
| 20260509175601 | 68 | 78 | 4.0 | 5.0 | 0.00 | 0.01 | 0.01 | 60 | 1013.2 |
| 20260509175502 | 68 | 78 | 3.0 | 5.0 | 0.00 | 0.01 | 0.01 | 61 | 1013.2 |
| 20260509175404 | 68 | 78 | 3.0 | 7.0 | 0.00 | 0.01 | 0.01 | 61 | 1013.2 |
| 20260509175103 | 68 | 78 | 4.0 | 7.0 | 0.00 | 0.01 | 0.01 | 62 | 1013.2 |
| 20260509175000 | 68 | 78 | 3.0 | 7.0 | 0.00 | 0.01 | 0.01 | 61 | 1013.2 |
| 20260509174902 | 68 | 78 | 3.0 | 7.0 | 0.00 | 0.01 | 0.01 | 60 | 1013.2 |
| 20260509174803 | 68 | 73 | 3.0 | 7.0 | 0.00 | 0.01 | 0.01 | 60 | 1013.2 |
| 20260509174659 | 68 | 73 | 4.0 | 7.0 | 0.00 | 0.01 | 0.01 | 60 | 1013.2 |
| 20260509174503 | 68 | 73 | 5.0 | 7.0 | 0.00 | 0.01 | 0.01 | 58 | 1013.2 |
| 20260509174400 | 68 | 74 | 7.0 | 7.0 | 0.00 | 0.01 | 0.01 | 59 | 1013.2 |
| 20260509174217 | 69 | 62 | 4.0 | 7.0 | 0.00 | 0.01 | 0.01 | 58 | 1013.2 |
| 20260509174111 | 69 | 80 | 5.0 | 7.0 | 0.00 | 0.01 | 0.01 | 58 | 1013.2 |
| 20260509174001 | 69 | 84 | 7.0 | 8.0 | 0.00 | 0.01 | 0.01 | 58 | 1013.2 |
| 20260509173903 | 69 | 78 | 5.0 | 9.0 | 0.00 | 0.01 | 0.01 | 59 | 1013.2 |
| 20260509173803 | 69 | 81 | 3.0 | 9.0 | 0.00 | 0.01 | 0.01 | 59 | 1013.2 |
| 20260509173700 | 69 | 80 | 3.0 | 9.0 | 0.00 | 0.01 | 0.01 | 59 | 1013.2 |
| 20260509173603 | 69 | 71 | 4.0 | 9.0 | 0.00 | 0.01 | 0.01 | 59 | 1013.1 |
| 20260509173503 | 69 | 71 | 4.0 | 9.0 | 0.00 | 0.01 | 0.01 | 59 | 1013.2 |
| 20260509173400 | 69 | 80 | 6.0 | 9.0 | 0.00 | 0.01 | 0.01 | 59 | 1013.1 |
| 20260509173302 | 69 | 82 | 3.0 | 9.0 | 0.00 | 0.01 | 0.01 | 59 | 1013.2 |
| 20260509173206 | 70 | 82 | 3.0 | 9.0 | 0.00 | 0.01 | 0.01 | 59 | 1013.2 |
| 20260509173007 | 70 | 85 | 6.0 | 9.0 | 0.00 | 0.01 | 0.01 | 58 | 1013.1 |
| 20260509172903 | 70 | 70 | 7.0 | 9.0 | 0.00 | 0.01 | 0.01 | 58 | 1013.2 |
| 20260509172800 | 70 | 78 | 5.0 | 9.0 | 0.00 | 0.01 | 0.01 | 58 | 1013.2 |
| 20260509172703 | 70 | 67 | 8.0 | 9.0 | 0.00 | 0.01 | 0.01 | 58 | 1013.2 |
| 20260509172603 | 70 | 72 | 4.0 | 9.0 | 0.00 | 0.01 | 0.01 | 57 | 1013.2 |
| 20260509172502 | 70 | 94 | 6.0 | 9.0 | 0.00 | 0.01 | 0.01 | 57 | 1013.2 |
| 20260509172306 | 71 | 64 | 7.0 | 9.0 | 0.00 | 0.01 | 0.01 | 57 | 1013.2 |
| 20260509172200 | 71 | 66 | 5.0 | 9.0 | 0.00 | 0.01 | 0.01 | 58 | 1013.2 |
| 20260509172104 | 71 | 76 | 3.0 | 9.0 | 0.00 | 0.01 | 0.01 | 56 | 1013.2 |
| 20260509171900 | 71 | 82 | 5.0 | 9.0 | 0.00 | 0.01 | 0.01 | 56 | 1013.2 |
| 20260509171702 | 71 | 57 | 3.0 | 9.0 | 0.00 | 0.01 | 0.01 | 56 | 1013.2 |
| 20260509171600 | 71 | 90 | 8.0 | 9.0 | 0.00 | 0.01 | 0.01 | 56 | 1013.2 |
| 20260509171502 | 71 | 83 | 6.0 | 9.0 | 0.00 | 0.01 | 0.01 | 56 | 1013.2 |
| 20260509171402 | 71 | 82 | 5.0 | 9.0 | 0.00 | 0.01 | 0.01 | 55 | 1013.1 |
| 20260509171300 | 71 | 61 | 3.0 | 9.0 | 0.00 | 0.01 | 0.01 | 55 | 1013.1 |
| 20260509171203 | 71 | 79 | 6.0 | 10.0 | 0.00 | 0.01 | 0.01 | 55 | 1013.2 |
| 20260509170902 | 71 | 56 | 4.0 | 10.0 | 0.00 | 0.01 | 0.01 | 55 | 1013.1 |
| 20260509170802 | 71 | 60 | 5.0 | 10.0 | 0.00 | 0.01 | 0.01 | 54 | 1013.1 |
| 20260509170503 | 72 | 84 | 6.0 | 13.0 | 0.00 | 0.01 | 0.01 | 54 | 1013.1 |
| 20260509170302 | 72 | 76 | 9.0 | 13.0 | 0.00 | 0.01 | 0.01 | 54 | 1013.1 |
| 20260509170100 | 72 | 94 | 5.0 | 13.0 | 0.00 | 0.01 | 0.01 | 55 | 1013.2 |
| 20260509170006 | 72 | 115 | 8.0 | 13.0 | 0.00 | 0.01 | 0.01 | 55 | 1013.2 |
| 20260509165801 | 72 | 86 | 8.0 | 13.0 | 0.00 | 0.01 | 0.01 | 55 | 1013.2 |
| 20260509165702 | 72 | 88 | 9.0 | 13.0 | 0.00 | 0.01 | 0.01 | 54 | 1013.2 |
| 20260509165603 | 72 | 101 | 11.0 | 13.0 | 0.00 | 0.01 | 0.01 | 53 | 1013.2 |
| 20260509165404 | 72 | 96 | 7.0 | 13.0 | 0.00 | 0.01 | 0.01 | 54 | 1013.2 |
| 20260509165306 | 72 | 84 | 11.0 | 13.0 | 0.00 | 0.01 | 0.01 | 54 | 1013.2 |
| 20260509165201 | 72 | 118 | 10.0 | 12.0 | 0.00 | 0.01 | 0.01 | 53 | 1013.1 |
| 20260509165104 | 72 | 90 | 8.0 | 12.0 | 0.00 | 0.01 | 0.01 | 54 | 1013.1 |
| 20260509164900 | 72 | 80 | 8.0 | 13.0 | 0.00 | 0.01 | 0.01 | 53 | 1013.1 |
| 20260509164703 | 72 | 90 | 7.0 | 12.0 | 0.00 | 0.01 | 0.01 | 53 | 1013.2 |
| 20260509164504 | 72 | 81 | 2.0 | 13.0 | 0.00 | 0.01 | 0.01 | 55 | 1013.2 |
| 20260509164202 | 73 | 105 | 2.0 | 13.0 | 0.00 | 0.01 | 0.01 | 54 | 1013.3 |
| 20260509164103 | 73 | 88 | 9.0 | 13.0 | 0.00 | 0.01 | 0.01 | 54 | 1013.3 |
| 20260509163803 | 73 | 92 | 6.0 | 13.0 | 0.00 | 0.01 | 0.01 | 55 | 1013.4 |
| 20260509163702 | 73 | 77 | 5.0 | 13.0 | 0.00 | 0.01 | 0.01 | 55 | 1013.3 |
| 20260509163602 | 73 | 55 | 3.0 | 13.0 | 0.00 | 0.01 | 0.01 | 54 | 1013.3 |
| 20260509163503 | 73 | 42 | 6.0 | 13.0 | 0.00 | 0.01 | 0.01 | 54 | 1013.3 |
| 20260509163405 | 73 | 75 | 10.0 | 15.0 | 0.00 | 0.01 | 0.01 | 54 | 1013.3 |
| 20260509163203 | 73 | 71 | 9.0 | 15.0 | 0.00 | 0.01 | 0.01 | 54 | 1013.4 |
| 20260509163101 | 73 | 76 | 13.0 | 15.0 | 0.00 | 0.01 | 0.01 | 54 | 1013.4 |
| 20260509163004 | 73 | 71 | 8.0 | 15.0 | 0.00 | 0.01 | 0.01 | 53 | 1013.4 |
| 20260509162904 | 73 | 94 | 11.0 | 15.0 | 0.00 | 0.01 | 0.01 | 54 | 1013.4 |
| 20260509162704 | 73 | 80 | 8.0 | 15.0 | 0.00 | 0.01 | 0.01 | 54 | 1013.4 |
| 20260509162606 | 73 | 74 | 11.0 | 15.0 | 0.00 | 0.01 | 0.01 | 54 | 1013.4 |
| 20260509162501 | 73 | 69 | 7.0 | 15.0 | 0.00 | 0.01 | 0.01 | 55 | 1013.4 |
| 20260509162402 | 73 | 81 | 15.0 | 15.0 | 0.00 | 0.01 | 0.01 | 56 | 1013.4 |
| 20260509162306 | 73 | 73 | 9.0 | 15.0 | 0.00 | 0.01 | 0.01 | 56 | 1013.4 |
| 20260509162200 | 73 | 73 | 10.0 | 15.0 | 0.00 | 0.01 | 0.01 | 55 | 1013.4 |
| 20260509162104 | 73 | 74 | 10.0 | 15.0 | 0.00 | 0.01 | 0.01 | 55 | 1013.4 |
| 20260509162005 | 73 | 45 | 7.0 | 15.0 | 0.00 | 0.01 | 0.01 | 55 | 1013.5 |
| 20260509161901 | 73 | 78 | 8.0 | 15.0 | 0.00 | 0.01 | 0.01 | 54 | 1013.4 |
| 20260509161600 | 73 | 75 | 12.0 | 15.0 | 0.00 | 0.01 | 0.01 | 54 | 1013.5 |
| 20260509161501 | 73 | 62 | 10.0 | 14.0 | 0.00 | 0.01 | 0.01 | 54 | 1013.5 |
| 20260509161403 | 73 | 75 | 4.0 | 14.0 | 0.00 | 0.01 | 0.01 | 54 | 1013.6 |
| 20260509161259 | 73 | 57 | 11.0 | 14.0 | 0.00 | 0.01 | 0.01 | 55 | 1013.5 |
| 20260509161203 | 73 | 73 | 5.0 | 14.0 | 0.00 | 0.01 | 0.01 | 56 | 1013.5 |
| 20260509161103 | 73 | 82 | 9.0 | 14.0 | 0.00 | 0.01 | 0.01 | 54 | 1013.5 |
| 20260509161000 | 74 | 34 | 6.0 | 14.0 | 0.00 | 0.01 | 0.01 | 54 | 1013.5 |
| 20260509160901 | 74 | 63 | 9.0 | 14.0 | 0.00 | 0.01 | 0.01 | 53 | 1013.5 |
| 20260509160804 | 74 | 77 | 8.0 | 15.0 | 0.00 | 0.01 | 0.01 | 53 | 1013.5 |
| 20260509160702 | 74 | 80 | 11.0 | 16.0 | 0.00 | 0.01 | 0.01 | 54 | 1013.6 |
| 20260509160605 | 74 | 76 | 12.0 | 16.0 | 0.00 | 0.01 | 0.01 | 53 | 1013.6 |
| 20260509160518 | 74 | 84 | 10.0 | 16.0 | 0.00 | 0.01 | 0.01 | 55 | 1013.6 |
| 20260509160402 | 74 | 95 | 7.0 | 16.0 | 0.00 | 0.01 | 0.01 | 54 | 1013.6 |
| 20260509160302 | 74 | 99 | 13.0 | 16.0 | 0.00 | 0.01 | 0.01 | 54 | 1013.6 |
| 20260509160204 | 74 | 92 | 13.0 | 16.0 | 0.00 | 0.01 | 0.01 | 53 | 1013.6 |
| 20260509160118 | 74 | 101 | 11.0 | 16.0 | 0.00 | 0.01 | 0.01 | 54 | 1013.6 |
| 20260509160005 | 74 | 72 | 12.0 | 16.0 | 0.00 | 0.01 | 0.01 | 54 | 1013.5 |
| 20260509155903 | 74 | 74 | 10.0 | 16.0 | 0.00 | 0.01 | 0.01 | 56 | 1013.6 |
| 20260509155801 | 74 | 74 | 11.0 | 16.0 | 0.00 | 0.01 | 0.01 | 56 | 1013.6 |
| 20260509155702 | 74 | 67 | 11.0 | 15.0 | 0.00 | 0.01 | 0.01 | 55 | 1013.5 |
| 20260509155604 | 74 | 62 | 12.0 | 15.0 | 0.00 | 0.01 | 0.01 | 56 | 1013.5 |
| 20260509155501 | 74 | 79 | 7.0 | 15.0 | 0.00 | 0.01 | 0.01 | 57 | 1013.6 |
| 20260509155306 | 74 | 79 | 10.0 | 15.0 | 0.00 | 0.01 | 0.01 | 56 | 1013.6 |
| 20260509155200 | 74 | 67 | 9.0 | 15.0 | 0.00 | 0.01 | 0.01 | 56 | 1013.6 |
| 20260509155105 | 74 | 69 | 10.0 | 15.0 | 0.00 | 0.01 | 0.01 | 56 | 1013.6 |
| 20260509155006 | 74 | 88 | 10.0 | 15.0 | 0.00 | 0.01 | 0.01 | 56 | 1013.6 |
| 20260509154900 | 74 | 73 | 9.0 | 15.0 | 0.00 | 0.01 | 0.01 | 56 | 1013.7 |
| 20260509154802 | 74 | 74 | 8.0 | 15.0 | 0.00 | 0.01 | 0.01 | 56 | 1013.7 |
| 20260509154702 | 74 | 78 | 13.0 | 13.0 | 0.00 | 0.01 | 0.01 | 58 | 1013.7 |
| 20260509154602 | 74 | 89 | 11.0 | 14.0 | 0.00 | 0.01 | 0.01 | 58 | 1013.7 |
| 20260509154403 | 74 | 46 | 6.0 | 13.0 | 0.00 | 0.01 | 0.01 | 57 | 1013.7 |
| 20260509154301 | 74 | 52 | 11.0 | 13.0 | 0.00 | 0.01 | 0.01 | 58 | 1013.8 |
| 20260509154204 | 74 | 42 | 9.0 | 13.0 | 0.00 | 0.01 | 0.01 | 57 | 1013.7 |
| 20260509154104 | 74 | 28 | 6.0 | 14.0 | 0.00 | 0.01 | 0.01 | 57 | 1013.7 |
| 20260509154003 | 74 | 53 | 5.0 | 14.0 | 0.00 | 0.01 | 0.01 | 59 | 1013.7 |
| 20260509153903 | 74 | 44 | 8.0 | 14.0 | 0.00 | 0.01 | 0.01 | 58 | 1013.7 |
| 20260509153803 | 74 | 57 | 9.0 | 14.0 | 0.00 | 0.01 | 0.01 | 59 | 1013.7 |
| 20260509153700 | 74 | 55 | 5.0 | 14.0 | 0.00 | 0.01 | 0.01 | 58 | 1013.7 |
| 20260509153602 | 74 | 69 | 8.0 | 14.0 | 0.00 | 0.01 | 0.01 | 59 | 1013.7 |
| 20260509153503 | 74 | 85 | 10.0 | 13.0 | 0.00 | 0.01 | 0.01 | 59 | 1013.7 |
| 20260509153400 | 74 | 57 | 4.0 | 13.0 | 0.00 | 0.01 | 0.01 | 59 | 1013.7 |
| 20260509153302 | 74 | 59 | 4.0 | 13.0 | 0.00 | 0.01 | 0.01 | 59 | 1013.7 |
| 20260509153203 | 74 | 72 | 8.0 | 13.0 | 0.00 | 0.01 | 0.01 | 59 | 1013.7 |
| 20260509153059 | 74 | 65 | 11.0 | 13.0 | 0.00 | 0.01 | 0.01 | 57 | 1013.7 |
| 20260509153001 | 74 | 74 | 12.0 | 14.0 | 0.00 | 0.01 | 0.01 | 57 | 1013.6 |
| 20260509152800 | 74 | 46 | 6.0 | 14.0 | 0.00 | 0.01 | 0.01 | 55 | 1013.7 |
| 20260509152700 | 75 | 67 | 8.0 | 14.0 | 0.00 | 0.01 | 0.01 | 55 | 1013.7 |
| 20260509152621 | 75 | 43 | 9.0 | 14.0 | 0.00 | 0.01 | 0.01 | 55 | 1013.7 |
| 20260509152500 | 75 | 360 | 6.0 | 14.0 | 0.00 | 0.01 | 0.01 | 56 | 1013.6 |
| 20260509152410 | 75 | 44 | 7.0 | 14.0 | 0.00 | 0.01 | 0.01 | 57 | 1013.6 |
| 20260509152306 | 75 | 74 | 11.0 | 14.0 | 0.00 | 0.01 | 0.01 | 56 | 1013.7 |
| 20260509152200 | 75 | 78 | 8.0 | 14.0 | 0.00 | 0.01 | 0.01 | 56 | 1013.7 |
| 20260509152101 | 75 | 68 | 12.0 | 14.0 | 0.00 | 0.01 | 0.01 | 57 | 1013.7 |
| 20260509151900 | 75 | 82 | 8.0 | 11.0 | 0.00 | 0.01 | 0.01 | 57 | 1013.7 |
| 20260509151800 | 75 | 55 | 11.0 | 11.0 | 0.00 | 0.01 | 0.01 | 57 | 1013.7 |
| 20260509151703 | 75 | 57 | 7.0 | 12.0 | 0.00 | 0.01 | 0.01 | 56 | 1013.7 |
| 20260509151600 | 75 | 24 | 11.0 | 12.0 | 0.00 | 0.01 | 0.01 | 55 | 1013.7 |
| 20260509151500 | 75 | 15 | 7.0 | 12.0 | 0.00 | 0.01 | 0.01 | 56 | 1013.8 |
| 20260509151402 | 75 | 60 | 4.0 | 12.0 | 0.00 | 0.01 | 0.01 | 56 | 1013.8 |
| 20260509151259 | 75 | 76 | 5.0 | 12.0 | 0.00 | 0.01 | 0.01 | 55 | 1013.8 |
| 20260509151203 | 75 | 94 | 5.0 | 12.0 | 0.00 | 0.01 | 0.01 | 56 | 1013.9 |
| 20260509151103 | 75 | 82 | 9.0 | 12.0 | 0.00 | 0.01 | 0.01 | 56 | 1013.8 |
| 20260509151001 | 75 | 74 | 7.0 | 12.0 | 0.00 | 0.01 | 0.01 | 56 | 1013.9 |
| 20260509150900 | 75 | 69 | 12.0 | 12.0 | 0.00 | 0.01 | 0.01 | 58 | 1013.9 |
| 20260509150804 | 75 | 71 | 8.0 | 12.0 | 0.00 | 0.01 | 0.01 | 57 | 1013.9 |
| 20260509150700 | 75 | 33 | 8.0 | 12.0 | 0.00 | 0.01 | 0.01 | 56 | 1013.9 |
| 20260509150604 | 75 | 31 | 6.0 | 12.0 | 0.00 | 0.01 | 0.01 | 57 | 1013.9 |
| 20260509150503 | 75 | 62 | 5.0 | 12.0 | 0.00 | 0.01 | 0.01 | 57 | 1013.9 |
| 20260509150300 | 75 | 46 | 7.0 | 12.0 | 0.00 | 0.01 | 0.01 | 53 | 1013.9 |
| 20260509150203 | 75 | 69 | 8.0 | 12.0 | 0.00 | 0.01 | 0.01 | 54 | 1013.9 |
| 20260509150100 | 75 | 65 | 9.0 | 12.0 | 0.00 | 0.01 | 0.01 | 54 | 1013.9 |
| 20260509150004 | 75 | 27 | 8.0 | 12.0 | 0.00 | 0.01 | 0.01 | 54 | 1013.9 |
| 20260509145904 | 75 | 55 | 9.0 | 13.0 | 0.00 | 0.01 | 0.01 | 56 | 1013.9 |
| 20260509145800 | 75 | 51 | 6.0 | 13.0 | 0.00 | 0.01 | 0.01 | 54 | 1014.0 |
| 20260509145701 | 76 | 56 | 10.0 | 16.0 | 0.00 | 0.01 | 0.01 | 56 | 1014.0 |
| 20260509145607 | 76 | 64 | 5.0 | 16.0 | 0.00 | 0.01 | 0.01 | 55 | 1014.0 |
| 20260509145501 | 76 | 67 | 9.0 | 16.0 | 0.00 | 0.01 | 0.01 | 55 | 1014.0 |
| 20260509145400 | 76 | 70 | 12.0 | 16.0 | 0.00 | 0.01 | 0.01 | 56 | 1014.0 |
| 20260509145159 | 76 | 75 | 5.0 | 16.0 | 0.00 | 0.01 | 0.01 | 55 | 1014.1 |
| 20260509145100 | 76 | 65 | 10.0 | 16.0 | 0.00 | 0.01 | 0.01 | 54 | 1014.1 |
| 20260509145007 | 76 | 65 | 7.0 | 16.0 | 0.00 | 0.01 | 0.01 | 54 | 1014.1 |
| 20260509144859 | 76 | 51 | 10.0 | 16.0 | 0.00 | 0.01 | 0.01 | 57 | 1014.1 |
| 20260509144759 | 76 | 59 | 12.0 | 16.0 | 0.00 | 0.01 | 0.01 | 57 | 1014.1 |
| 20260509144702 | 76 | 78 | 9.0 | 15.0 | 0.00 | 0.01 | 0.01 | 54 | 1014.1 |
| 20260509144600 | 76 | 42 | 6.0 | 15.0 | 0.00 | 0.01 | 0.01 | 55 | 1014.1 |
| 20260509144500 | 76 | 71 | 9.0 | 15.0 | 0.00 | 0.01 | 0.01 | 54 | 1014.1 |
| 20260509144402 | 76 | 42 | 5.0 | 15.0 | 0.00 | 0.01 | 0.01 | 54 | 1014.1 |
| 20260509144300 | 76 | 37 | 4.0 | 15.0 | 0.00 | 0.01 | 0.01 | 55 | 1014.1 |
| 20260509144201 | 76 | 85 | 5.0 | 15.0 | 0.00 | 0.01 | 0.01 | 54 | 1014.1 |
| 20260509144104 | 76 | 48 | 6.0 | 15.0 | 0.00 | 0.01 | 0.01 | 56 | 1014.1 |
| 20260509143900 | 76 | 92 | 9.0 | 15.0 | 0.00 | 0.01 | 0.01 | 54 | 1014.1 |
| 20260509143803 | 76 | 78 | 12.0 | 15.0 | 0.00 | 0.01 | 0.01 | 54 | 1014.1 |
| 20260509143700 | 76 | 87 | 7.0 | 12.0 | 0.00 | 0.01 | 0.01 | 55 | 1014.2 |
| 20260509143600 | 76 | 91 | 8.0 | 12.0 | 0.00 | 0.01 | 0.01 | 54 | 1014.2 |
| 20260509143506 | 76 | 92 | 7.0 | 12.0 | 0.00 | 0.01 | 0.01 | 55 | 1014.2 |
| 20260509143400 | 76 | 78 | 9.0 | 12.0 | 0.00 | 0.01 | 0.01 | 53 | 1014.2 |
| 20260509143259 | 76 | 83 | 6.0 | 12.0 | 0.00 | 0.01 | 0.01 | 53 | 1014.2 |
| 20260509143204 | 76 | 126 | 5.0 | 12.0 | 0.00 | 0.01 | 0.01 | 55 | 1014.2 |
| 20260509143103 | 76 | 69 | 10.0 | 12.0 | 0.00 | 0.01 | 0.01 | 55 | 1014.2 |
| 20260509143008 | 76 | 51 | 9.0 | 10.0 | 0.00 | 0.01 | 0.01 | 55 | 1014.2 |
| 20260509142902 | 76 | 65 | 8.0 | 9.0 | 0.00 | 0.01 | 0.01 | 55 | 1014.2 |
| 20260509142700 | 76 | 94 | 8.0 | 9.0 | 0.00 | 0.01 | 0.01 | 52 | 1014.2 |
| 20260509142503 | 76 | 86 | 7.0 | 9.0 | 0.00 | 0.01 | 0.01 | 51 | 1014.2 |
| 20260509142400 | 76 | 20 | 7.0 | 8.0 | 0.00 | 0.01 | 0.01 | 52 | 1014.2 |
| 20260509142307 | 76 | 33 | 6.0 | 13.0 | 0.00 | 0.01 | 0.01 | 49 | 1014.2 |
| 20260509142200 | 76 | 63 | 7.0 | 13.0 | 0.00 | 0.01 | 0.01 | 49 | 1014.2 |
| 20260509142101 | 77 | 32 | 5.0 | 13.0 | 0.00 | 0.01 | 0.01 | 50 | 1014.2 |
| 20260509142005 | 77 | 47 | 4.0 | 13.0 | 0.00 | 0.01 | 0.01 | 50 | 1014.2 |
| 20260509141800 | 77 | 30 | 4.0 | 13.0 | 0.00 | 0.01 | 0.01 | 50 | 1014.3 |
| 20260509141702 | 77 | 84 | 1.0 | 13.0 | 0.00 | 0.01 | 0.01 | 49 | 1014.3 |
| 20260509141600 | 77 | 56 | 3.0 | 13.0 | 0.00 | 0.01 | 0.01 | 52 | 1014.3 |
| 20260509141500 | 76 | 91 | 6.0 | 13.0 | 0.00 | 0.01 | 0.01 | 53 | 1014.3 |
| 20260509141423 | 77 | 82 | 6.0 | 13.0 | 0.00 | 0.01 | 0.01 | 52 | 1014.3 |
| 20260509141203 | 77 | 93 | 13.0 | 13.0 | 0.00 | 0.01 | 0.01 | 52 | 1014.4 |
| 20260509141059 | 76 | 61 | 5.0 | 11.0 | 0.00 | 0.01 | 0.01 | 53 | 1014.4 |
| 20260509141001 | 76 | 79 | 7.0 | 11.0 | 0.00 | 0.01 | 0.01 | 51 | 1014.4 |
| 20260509140904 | 76 | 76 | 7.0 | 11.0 | 0.00 | 0.01 | 0.01 | 50 | 1014.3 |
| 20260509140801 | 76 | 44 | 5.0 | 11.0 | 0.00 | 0.01 | 0.01 | 47 | 1014.4 |
| 20260509140603 | 77 | 85 | 9.0 | 11.0 | 0.00 | 0.01 | 0.01 | 50 | 1014.3 |
| 20260509140500 | 77 | 84 | 3.0 | 12.0 | 0.00 | 0.01 | 0.01 | 49 | 1014.3 |
| 20260509140400 | 77 | 65 | 5.0 | 12.0 | 0.00 | 0.01 | 0.01 | 52 | 1014.3 |
| 20260509140304 | 77 | 69 | 9.0 | 12.0 | 0.00 | 0.01 | 0.01 | 52 | 1014.3 |
| 20260509140200 | 77 | 66 | 5.0 | 12.0 | 0.00 | 0.01 | 0.01 | 50 | 1014.4 |
| 20260509140009 | 77 | 71 | 8.0 | 14.0 | 0.00 | 0.01 | 0.01 | 50 | 1014.4 |
| 20260509135800 | 77 | 65 | 11.0 | 14.0 | 0.00 | 0.01 | 0.01 | 50 | 1014.4 |
| 20260509135703 | 77 | 77 | 7.0 | 14.0 | 0.00 | 0.01 | 0.01 | 50 | 1014.4 |
| 20260509135559 | 77 | 57 | 3.0 | 14.0 | 0.00 | 0.01 | 0.01 | 50 | 1014.3 |
| 20260509135500 | 77 | 74 | 10.0 | 14.0 | 0.00 | 0.01 | 0.01 | 45 | 1014.3 |
| 20260509135404 | 77 | 44 | 2.0 | 14.0 | 0.00 | 0.01 | 0.01 | 46 | 1014.3 |
| 20260509135259 | 77 | 64 | 5.0 | 14.0 | 0.00 | 0.01 | 0.01 | 48 | 1014.3 |
| 20260509135203 | 77 | 71 | 9.0 | 14.0 | 0.00 | 0.01 | 0.01 | 49 | 1014.3 |
| 20260509135102 | 77 | 69 | 12.0 | 13.0 | 0.00 | 0.01 | 0.01 | 48 | 1014.4 |
| 20260509135001 | 77 | 61 | 7.0 | 8.0 | 0.00 | 0.01 | 0.01 | 43 | 1014.4 |
| 20260509134900 | 77 | 42 | 5.0 | 8.0 | 0.00 | 0.01 | 0.01 | 44 | 1014.4 |
| 20260509134806 | 77 | 30 | 3.0 | 8.0 | 0.00 | 0.01 | 0.01 | 43 | 1014.4 |
| 20260509134700 | 77 | 101 | 3.0 | 8.0 | 0.00 | 0.01 | 0.01 | 44 | 1014.4 |
| 20260509134600 | 77 | 102 | 2.0 | 8.0 | 0.00 | 0.01 | 0.01 | 47 | 1014.5 |
| 20260509134400 | 77 | 96 | 2.0 | 10.0 | 0.00 | 0.01 | 0.01 | 48 | 1014.5 |
| 20260509134259 | 76 | 76 | 5.0 | 11.0 | 0.00 | 0.01 | 0.01 | 46 | 1014.5 |
| 20260509134203 | 76 | 355 | 3.0 | 11.0 | 0.00 | 0.01 | 0.01 | 49 | 1014.5 |
| 20260509134100 | 76 | 26 | 4.0 | 11.0 | 0.00 | 0.01 | 0.01 | 47 | 1014.5 |
| 20260509134000 | 76 | 5 | 1.0 | 11.0 | 0.00 | 0.01 | 0.01 | 47 | 1014.5 |
| 20260509133904 | 76 | 325 | 3.0 | 11.0 | 0.00 | 0.01 | 0.01 | 50 | 1014.5 |
| 20260509133800 | 76 | 11 | 5.0 | 11.0 | 0.00 | 0.01 | 0.01 | 44 | 1014.5 |
| 20260509133701 | 76 | 30 | 5.0 | 11.0 | 0.00 | 0.01 | 0.01 | 44 | 1014.5 |
| 20260509133605 | 76 | 46 | 5.0 | 11.0 | 0.00 | 0.01 | 0.01 | 43 | 1014.5 |
| 20260509133459 | 76 | 34 | 5.0 | 11.0 | 0.00 | 0.01 | 0.01 | 43 | 1014.6 |
| 20260509133303 | 76 | 17 | 10.0 | 11.0 | 0.00 | 0.01 | 0.01 | 43 | 1014.5 |
| 20260509133200 | 76 | 51 | 5.0 | 11.0 | 0.00 | 0.01 | 0.01 | 45 | 1014.5 |
| 20260509133006 | 77 | 42 | 6.0 | 9.0 | 0.00 | 0.01 | 0.01 | 43 | 1014.6 |
| 20260509132903 | 77 | 39 | 6.0 | 8.0 | 0.00 | 0.01 | 0.01 | 45 | 1014.5 |
| 20260509132800 | 77 | 95 | 5.0 | 9.0 | 0.00 | 0.01 | 0.01 | 46 | 1014.6 |
| 20260509132706 | 77 | 99 | 3.0 | 9.0 | 0.00 | 0.01 | 0.01 | 43 | 1014.6 |
| 20260509132600 | 77 | 62 | 7.0 | 9.0 | 0.00 | 0.01 | 0.01 | 46 | 1014.6 |
| 20260509132501 | 77 | 109 | 8.0 | 8.0 | 0.00 | 0.01 | 0.01 | 46 | 1014.6 |
| 20260509132402 | 77 | 72 | 7.0 | 8.0 | 0.00 | 0.01 | 0.01 | 46 | 1014.6 |
| 20260509132309 | 77 | 45 | 4.0 | 8.0 | 0.00 | 0.01 | 0.01 | 48 | 1014.6 |
| 20260509132221 | 77 | 60 | 2.0 | 8.0 | 0.00 | 0.01 | 0.01 | 45 | 1014.6 |
| 20260509132105 | 77 | 65 | 4.0 | 8.0 | 0.00 | 0.01 | 0.01 | 45 | 1014.6 |
| 20260509132003 | 77 | 65 | 5.0 | 8.0 | 0.00 | 0.01 | 0.01 | 45 | 1014.6 |
| 20260509131806 | 77 | 28 | 4.0 | 8.0 | 0.00 | 0.01 | 0.01 | 45 | 1014.6 |
| 20260509131506 | 76 | 79 | 0.0 | 8.0 | 0.00 | 0.01 | 0.01 | 42 | 1014.7 |
| 20260509131401 | 76 | 79 | 1.0 | 8.0 | 0.00 | 0.01 | 0.01 | 45 | 1014.7 |
| 20260509131300 | 76 | 79 | 1.0 | 8.0 | 0.00 | 0.01 | 0.01 | 44 | 1014.7 |
| 20260509131202 | 76 | 79 | 3.0 | 8.0 | 0.00 | 0.01 | 0.01 | 43 | 1014.8 |
| 20260509131101 | 76 | 82 | 8.0 | 8.0 | 0.00 | 0.01 | 0.01 | 45 | 1014.8 |
| 20260509131002 | 76 | 86 | 7.0 | 8.0 | 0.00 | 0.01 | 0.01 | 45 | 1014.7 |
| 20260509130903 | 76 | 67 | 5.0 | 7.0 | 0.00 | 0.01 | 0.01 | 47 | 1014.8 |
| 20260509130801 | 76 | 32 | 3.0 | 7.0 | 0.00 | 0.01 | 0.01 | 49 | 1014.8 |
| 20260509130700 | 76 | 360 | 1.0 | 7.0 | 0.00 | 0.01 | 0.01 | 44 | 1014.8 |
| 20260509130602 | 76 | 310 | 2.0 | 7.0 | 0.00 | 0.01 | 0.01 | 49 | 1014.8 |
| 20260509130501 | 76 | 342 | 4.0 | 7.0 | 0.00 | 0.01 | 0.01 | 47 | 1014.8 |
| 20260509130400 | 76 | 348 | 2.0 | 7.0 | 0.00 | 0.01 | 0.01 | 46 | 1014.9 |
| 20260509130306 | 76 | 338 | 5.0 | 7.0 | 0.00 | 0.01 | 0.01 | 44 | 1014.9 |
| 20260509130204 | 76 | 10 | 2.0 | 7.0 | 0.00 | 0.01 | 0.01 | 46 | 1014.8 |
| 20260509130100 | 76 | 351 | 3.0 | 7.0 | 0.00 | 0.01 | 0.01 | 45 | 1014.9 |
| 20260509130006 | 76 | 9 | 5.0 | 7.0 | 0.00 | 0.01 | 0.01 | 42 | 1014.9 |
| 20260509125901 | 76 | 43 | 6.0 | 7.0 | 0.00 | 0.01 | 0.01 | 47 | 1014.9 |
| 20260509125800 | 76 | 40 | 5.0 | 7.0 | 0.00 | 0.01 | 0.01 | 45 | 1014.9 |
| 20260509125702 | 76 | 19 | 4.0 | 7.0 | 0.00 | 0.01 | 0.01 | 46 | 1014.9 |
| 20260509125501 | 76 | 36 | 5.0 | 10.0 | 0.00 | 0.01 | 0.01 | 45 | 1014.9 |
| 20260509125404 | 76 | 13 | 5.0 | 10.0 | 0.00 | 0.01 | 0.01 | 48 | 1014.9 |
| 20260509125301 | 76 | 96 | 1.0 | 10.0 | 0.00 | 0.01 | 0.01 | 51 | 1014.9 |
| 20260509125200 | 76 | 75 | 4.0 | 10.0 | 0.00 | 0.01 | 0.01 | 48 | 1015.0 |
| 20260509125103 | 76 | 77 | 2.0 | 10.0 | 0.00 | 0.01 | 0.01 | 48 | 1014.9 |
| 20260509125001 | 76 | 125 | 1.0 | 10.0 | 0.00 | 0.01 | 0.01 | 50 | 1014.9 |
| 20260509124901 | 76 | 90 | 3.0 | 10.0 | 0.00 | 0.01 | 0.01 | 51 | 1014.9 |
| 20260509124803 | 76 | 126 | 3.0 | 10.0 | 0.00 | 0.01 | 0.01 | 46 | 1014.9 |
| 20260509124659 | 76 | 111 | 8.0 | 10.0 | 0.00 | 0.01 | 0.01 | 42 | 1014.9 |
| 20260509124559 | 76 | 40 | 1.0 | 10.0 | 0.00 | 0.01 | 0.01 | 46 | 1015.0 |
| 20260509124503 | 76 | 83 | 6.0 | 8.0 | 0.00 | 0.01 | 0.01 | 47 | 1015.0 |
| 20260509124059 | 76 | 94 | 7.0 | 8.0 | 0.00 | 0.01 | 0.01 | 51 | 1014.9 |
| 20260509124000 | 76 | 61 | 7.0 | 8.0 | 0.00 | 0.01 | 0.01 | 43 | 1014.9 |
| 20260509123800 | 76 | 30 | 3.0 | 7.0 | 0.00 | 0.01 | 0.01 | 50 | 1014.9 |
| 20260509123700 | 76 | 48 | 2.0 | 7.0 | 0.00 | 0.01 | 0.01 | 50 | 1014.9 |
| 20260509123501 | 76 | 69 | 5.0 | 10.0 | 0.00 | 0.01 | 0.01 | 47 | 1014.9 |
| 20260509123400 | 76 | 73 | 2.0 | 10.0 | 0.00 | 0.01 | 0.01 | 48 | 1015.0 |
| 20260509123303 | 76 | 30 | 1.0 | 10.0 | 0.00 | 0.01 | 0.01 | 49 | 1015.0 |
| 20260509123200 | 76 | 76 | 4.0 | 10.0 | 0.00 | 0.01 | 0.01 | 47 | 1015.0 |
| 20260509123005 | 76 | 38 | 4.0 | 10.0 | 0.00 | 0.01 | 0.01 | 52 | 1015.0 |
| 20260509122900 | 76 | 121 | 2.0 | 10.0 | 0.00 | 0.01 | 0.01 | 50 | 1015.0 |
| 20260509122759 | 76 | 124 | 5.0 | 10.0 | 0.00 | 0.01 | 0.01 | 50 | 1015.0 |
| 20260509122702 | 75 | 94 | 6.0 | 10.0 | 0.00 | 0.01 | 0.01 | 51 | 1015.0 |
| 20260509122559 | 75 | 99 | 5.0 | 10.0 | 0.00 | 0.01 | 0.01 | 53 | 1015.0 |
| 20260509122502 | 75 | 73 | 10.0 | 10.0 | 0.00 | 0.01 | 0.01 | 51 | 1015.0 |
| 20260509122403 | 75 | 116 | 4.0 | 9.0 | 0.00 | 0.01 | 0.01 | 48 | 1014.9 |
| 20260509122259 | 75 | 90 | 7.0 | 9.0 | 0.00 | 0.01 | 0.01 | 48 | 1015.0 |
| 20260509122202 | 75 | 69 | 7.0 | 9.0 | 0.00 | 0.01 | 0.01 | 52 | 1015.0 |
| 20260509122104 | 75 | 45 | 5.0 | 9.0 | 0.00 | 0.01 | 0.01 | 49 | 1015.0 |
| 20260509122000 | 75 | 338 | 2.0 | 9.0 | 0.00 | 0.01 | 0.01 | 47 | 1015.0 |
| 20260509121900 | 75 | 327 | 1.0 | 9.0 | 0.00 | 0.01 | 0.01 | 46 | 1015.1 |
| 20260509121803 | 75 | 344 | 3.0 | 9.0 | 0.00 | 0.01 | 0.01 | 46 | 1015.1 |
| 20260509121701 | 75 | 60 | 3.0 | 9.0 | 0.00 | 0.01 | 0.01 | 46 | 1015.1 |
| 20260509121600 | 75 | 25 | 6.0 | 9.0 | 0.00 | 0.01 | 0.01 | 45 | 1015.2 |
| 20260509121504 | 75 | 35 | 6.0 | 9.0 | 0.00 | 0.01 | 0.01 | 47 | 1015.2 |
| 20260509121401 | 75 | 29 | 5.0 | 9.0 | 0.00 | 0.01 | 0.01 | 47 | 1015.1 |
| 20260509121300 | 75 | 40 | 4.0 | 10.0 | 0.00 | 0.01 | 0.01 | 45 | 1015.2 |
| 20260509121203 | 75 | 28 | 4.0 | 10.0 | 0.00 | 0.01 | 0.01 | 49 | 1015.2 |
| 20260509121109 | 75 | 74 | 2.0 | 10.0 | 0.00 | 0.01 | 0.01 | 46 | 1015.2 |
| 20260509121000 | 75 | 74 | 0.0 | 10.0 | 0.00 | 0.01 | 0.01 | 45 | 1015.2 |
| 20260509120902 | 75 | 62 | 4.0 | 10.0 | 0.00 | 0.01 | 0.01 | 45 | 1015.2 |
| 20260509120802 | 76 | 34 | 5.0 | 10.0 | 0.00 | 0.01 | 0.01 | 44 | 1015.2 |
| 20260509120700 | 76 | 38 | 6.0 | 10.0 | 0.00 | 0.01 | 0.01 | 48 | 1015.2 |
| 20260509120503 | 76 | 66 | 7.0 | 10.0 | 0.00 | 0.01 | 0.01 | 48 | 1015.2 |
| 20260509120400 | 76 | 40 | 4.0 | 8.0 | 0.00 | 0.01 | 0.01 | 50 | 1015.2 |
| 20260509120203 | 76 | 72 | 7.0 | 7.0 | 0.00 | 0.01 | 0.01 | 46 | 1015.3 |
| 20260509120122 | 76 | 60 | 4.0 | 7.0 | 0.00 | 0.01 | 0.01 | 44 | 1015.3 |
| 20260509120005 | 76 | 53 | 7.0 | 7.0 | 0.00 | 0.01 | 0.01 | 44 | 1015.3 |
| 20260509115903 | 76 | 90 | 1.0 | 5.0 | 0.00 | 0.01 | 0.01 | 47 | 1015.3 |
| 20260509115800 | 76 | 115 | 4.0 | 5.0 | 0.00 | 0.01 | 0.01 | 45 | 1015.3 |
| 20260509115702 | 76 | 96 | 2.0 | 5.0 | 0.00 | 0.01 | 0.01 | 45 | 1015.3 |
| 20260509115601 | 76 | 96 | 2.0 | 5.0 | 0.00 | 0.01 | 0.01 | 48 | 1015.3 |
| 20260509115500 | 76 | 136 | 1.0 | 7.0 | 0.00 | 0.01 | 0.01 | 46 | 1015.3 |
| 20260509115307 | 76 | 122 | 3.0 | 7.0 | 0.00 | 0.01 | 0.01 | 45 | 1015.3 |
| 20260509115159 | 76 | 29 | 0.0 | 7.0 | 0.00 | 0.01 | 0.01 | 47 | 1015.3 |
| 20260509115102 | 76 | 330 | 1.0 | 7.0 | 0.00 | 0.01 | 0.01 | 47 | 1015.3 |
| 20260509115003 | 76 | 330 | 2.0 | 7.0 | 0.00 | 0.01 | 0.01 | 49 | 1015.3 |
| 20260509114859 | 76 | 319 | 3.0 | 7.0 | 0.00 | 0.01 | 0.01 | 50 | 1015.4 |
| 20260509114803 | 75 | 313 | 4.0 | 7.0 | 0.00 | 0.01 | 0.01 | 48 | 1015.4 |
| 20260509114702 | 75 | 66 | 3.0 | 7.0 | 0.00 | 0.01 | 0.01 | 51 | 1015.4 |
| 20260509114600 | 75 | 104 | 3.0 | 7.0 | 0.00 | 0.01 | 0.01 | 47 | 1015.4 |
| 20260509114503 | 75 | 102 | 2.0 | 7.0 | 0.00 | 0.01 | 0.01 | 48 | 1015.4 |
| 20260509114402 | 75 | 134 | 4.0 | 7.0 | 0.00 | 0.01 | 0.01 | 48 | 1015.4 |
| 20260509114102 | 75 | 84 | 6.0 | 7.0 | 0.00 | 0.01 | 0.01 | 47 | 1015.4 |
| 20260509113903 | 74 | 65 | 2.0 | 7.0 | 0.00 | 0.01 | 0.01 | 49 | 1015.4 |
| 20260509113802 | 74 | 46 | 5.0 | 7.0 | 0.00 | 0.01 | 0.01 | 49 | 1015.4 |
| 20260509113700 | 74 | 57 | 5.0 | 8.0 | 0.00 | 0.01 | 0.01 | 48 | 1015.4 |
| 20260509113602 | 74 | 82 | 7.0 | 8.0 | 0.00 | 0.01 | 0.01 | 48 | 1015.4 |
| 20260509113359 | 74 | 80 | 2.0 | 7.0 | 0.00 | 0.01 | 0.01 | 46 | 1015.5 |
| 20260509113302 | 74 | 80 | 2.0 | 7.0 | 0.00 | 0.01 | 0.01 | 50 | 1015.5 |
| 20260509113202 | 74 | 60 | 5.0 | 9.0 | 0.00 | 0.01 | 0.01 | 47 | 1015.5 |
| 20260509113059 | 74 | 46 | 5.0 | 9.0 | 0.00 | 0.01 | 0.01 | 47 | 1015.5 |
| 20260509112902 | 74 | 47 | 6.0 | 9.0 | 0.00 | 0.01 | 0.01 | 52 | 1015.5 |
| 20260509112759 | 74 | 81 | 3.0 | 9.0 | 0.00 | 0.01 | 0.01 | 50 | 1015.5 |
| 20260509112703 | 74 | 43 | 3.0 | 9.0 | 0.00 | 0.01 | 0.01 | 46 | 1015.4 |
| 20260509112500 | 74 | 32 | 4.0 | 9.0 | 0.00 | 0.01 | 0.01 | 48 | 1015.4 |
| 20260509112200 | 74 | 32 | 5.0 | 9.0 | 0.00 | 0.01 | 0.01 | 51 | 1015.5 |
| 20260509112002 | 74 | 54 | 2.0 | 9.0 | 0.00 | 0.01 | 0.01 | 52 | 1015.5 |
| 20260509111903 | 74 | 45 | 3.0 | 9.0 | 0.00 | 0.01 | 0.01 | 53 | 1015.5 |
| 20260509111802 | 74 | 81 | 6.0 | 9.0 | 0.00 | 0.01 | 0.01 | 49 | 1015.5 |
| 20260509111702 | 74 | 57 | 2.0 | 9.0 | 0.00 | 0.01 | 0.01 | 50 | 1015.4 |
| 20260509111600 | 74 | 28 | 6.0 | 9.0 | 0.00 | 0.01 | 0.01 | 51 | 1015.5 |
| 20260509111505 | 74 | 24 | 3.0 | 9.0 | 0.00 | 0.01 | 0.01 | 49 | 1015.5 |
| 20260509111402 | 74 | 23 | 5.0 | 9.0 | 0.00 | 0.01 | 0.01 | 48 | 1015.5 |
| 20260509111300 | 74 | 32 | 8.0 | 9.0 | 0.00 | 0.01 | 0.01 | 50 | 1015.4 |
| 20260509111203 | 74 | 67 | 3.0 | 7.0 | 0.00 | 0.01 | 0.01 | 47 | 1015.5 |
| 20260509111103 | 74 | 42 | 4.0 | 7.0 | 0.00 | 0.01 | 0.01 | 49 | 1015.5 |
| 20260509110904 | 74 | 59 | 4.0 | 9.0 | 0.00 | 0.01 | 0.01 | 49 | 1015.5 |
| 20260509110803 | 74 | 35 | 3.0 | 9.0 | 0.00 | 0.01 | 0.01 | 50 | 1015.6 |
| 20260509110659 | 74 | 74 | 2.0 | 9.0 | 0.00 | 0.01 | 0.01 | 50 | 1015.6 |
| 20260509110603 | 74 | 74 | 3.0 | 9.0 | 0.00 | 0.01 | 0.01 | 49 | 1015.6 |
| 20260509110501 | 74 | 39 | 2.0 | 9.0 | 0.00 | 0.01 | 0.01 | 53 | 1015.6 |
| 20260509110359 | 74 | 41 | 6.0 | 9.0 | 0.00 | 0.01 | 0.01 | 53 | 1015.6 |
| 20260509110302 | 74 | 79 | 3.0 | 9.0 | 0.00 | 0.01 | 0.01 | 51 | 1015.6 |
| 20260509110202 | 74 | 107 | 3.0 | 9.0 | 0.00 | 0.01 | 0.01 | 50 | 1015.6 |
| 20260509110100 | 74 | 74 | 4.0 | 9.0 | 0.00 | 0.01 | 0.01 | 53 | 1015.6 |
| 20260509110007 | 74 | 62 | 4.0 | 9.0 | 0.00 | 0.01 | 0.01 | 54 | 1015.6 |
| 20260509105902 | 74 | 80 | 5.0 | 9.0 | 0.00 | 0.01 | 0.01 | 54 | 1015.7 |
| 20260509105800 | 74 | 56 | 6.0 | 10.0 | 0.00 | 0.01 | 0.01 | 55 | 1015.6 |
| 20260509105702 | 74 | 88 | 2.0 | 10.0 | 0.00 | 0.01 | 0.01 | 51 | 1015.7 |
| 20260509105602 | 74 | 92 | 6.0 | 10.0 | 0.00 | 0.01 | 0.01 | 54 | 1015.7 |
| 20260509105500 | 74 | 53 | 7.0 | 10.0 | 0.00 | 0.01 | 0.01 | 52 | 1015.7 |
| 20260509105403 | 73 | 34 | 4.0 | 10.0 | 0.00 | 0.01 | 0.01 | 52 | 1015.6 |
| 20260509105306 | 74 | 53 | 4.0 | 10.0 | 0.00 | 0.01 | 0.01 | 54 | 1015.7 |
| 20260509105002 | 74 | 15 | 5.0 | 10.0 | 0.00 | 0.01 | 0.01 | 50 | 1015.7 |
| 20260509104900 | 74 | 5 | 6.0 | 10.0 | 0.00 | 0.01 | 0.01 | 52 | 1015.7 |
| 20260509104803 | 74 | 27 | 5.0 | 8.0 | 0.00 | 0.01 | 0.01 | 54 | 1015.7 |
| 20260509104701 | 74 | 28 | 3.0 | 8.0 | 0.00 | 0.01 | 0.01 | 50 | 1015.7 |
| 20260509104503 | 74 | 360 | 1.0 | 8.0 | 0.00 | 0.01 | 0.01 | 50 | 1015.7 |
| 20260509104401 | 74 | 11 | 1.0 | 8.0 | 0.00 | 0.01 | 0.01 | 53 | 1015.7 |
| 20260509104301 | 74 | 11 | 1.0 | 8.0 | 0.00 | 0.01 | 0.01 | 50 | 1015.7 |
| 20260509104000 | 74 | 88 | 3.0 | 8.0 | 0.00 | 0.01 | 0.01 | 48 | 1015.8 |
| 20260509103902 | 74 | 56 | 6.0 | 8.0 | 0.00 | 0.01 | 0.01 | 48 | 1015.8 |
| 20260509103802 | 74 | 10 | 3.0 | 9.0 | 0.00 | 0.01 | 0.01 | 50 | 1015.8 |
| 20260509103659 | 74 | 24 | 5.0 | 9.0 | 0.00 | 0.01 | 0.01 | 56 | 1015.8 |
| 20260509103602 | 74 | 14 | 3.0 | 9.0 | 0.00 | 0.01 | 0.01 | 53 | 1015.8 |
| 20260509103359 | 74 | 335 | 2.0 | 9.0 | 0.00 | 0.01 | 0.01 | 52 | 1015.8 |
| 20260509103303 | 74 | 22 | 4.0 | 9.0 | 0.00 | 0.01 | 0.01 | 49 | 1015.8 |
| 20260509103202 | 74 | 333 | 2.0 | 9.0 | 0.00 | 0.01 | 0.01 | 50 | 1015.8 |
| 20260509103100 | 74 | 355 | 3.0 | 9.0 | 0.00 | 0.01 | 0.01 | 52 | 1015.8 |
| 20260509103004 | 74 | 5 | 7.0 | 9.0 | 0.00 | 0.01 | 0.01 | 56 | 1015.8 |
| 20260509102902 | 74 | 355 | 8.0 | 9.0 | 0.00 | 0.01 | 0.01 | 50 | 1015.8 |
| 20260509102800 | 74 | 350 | 5.0 | 8.0 | 0.00 | 0.01 | 0.01 | 54 | 1015.8 |
| 20260509102703 | 74 | 44 | 6.0 | 7.0 | 0.00 | 0.01 | 0.01 | 52 | 1015.9 |
| 20260509102505 | 74 | 350 | 2.0 | 6.0 | 0.00 | 0.01 | 0.01 | 51 | 1015.9 |
| 20260509102402 | 74 | 43 | 4.0 | 6.0 | 0.00 | 0.01 | 0.01 | 50 | 1015.9 |
| 20260509102305 | 74 | 78 | 3.0 | 6.0 | 0.00 | 0.01 | 0.01 | 50 | 1015.9 |
| 20260509102102 | 74 | 9 | 2.0 | 8.0 | 0.00 | 0.01 | 0.01 | 49 | 1015.9 |
| 20260509102002 | 74 | 9 | 1.0 | 8.0 | 0.00 | 0.01 | 0.01 | 49 | 1015.9 |
| 20260509101802 | 74 | 336 | 4.0 | 8.0 | 0.00 | 0.01 | 0.01 | 54 | 1015.9 |
| 20260509101701 | 74 | 327 | 3.0 | 8.0 | 0.00 | 0.01 | 0.01 | 53 | 1015.9 |
| 20260509101600 | 74 | 335 | 5.0 | 8.0 | 0.00 | 0.01 | 0.01 | 57 | 1015.9 |
| 20260509101503 | 74 | 302 | 5.0 | 8.0 | 0.00 | 0.01 | 0.01 | 57 | 1015.9 |
| 20260509101402 | 73 | 355 | 5.0 | 8.0 | 0.00 | 0.01 | 0.01 | 57 | 1015.9 |
| 20260509101203 | 73 | 10 | 6.0 | 8.0 | 0.00 | 0.01 | 0.01 | 50 | 1015.9 |
| 20260509101000 | 73 | 30 | 3.0 | 7.0 | 0.00 | 0.01 | 0.01 | 52 | 1015.9 |
| 20260509100801 | 73 | 42 | 4.0 | 7.0 | 0.00 | 0.01 | 0.01 | 47 | 1016.0 |
| 20260509100700 | 73 | 71 | 2.0 | 4.0 | 0.00 | 0.01 | 0.01 | 47 | 1016.0 |
| 20260509100603 | 73 | 209 | 1.0 | 4.0 | 0.00 | 0.01 | 0.01 | 46 | 1016.0 |
| 20260509100502 | 73 | 209 | 1.0 | 4.0 | 0.00 | 0.01 | 0.01 | 42 | 1016.0 |
| 20260509100302 | 73 | 208 | 1.0 | 4.0 | 0.00 | 0.01 | 0.01 | 40 | 1016.0 |
| 20260509100201 | 73 | 152 | 2.0 | 5.0 | 0.00 | 0.01 | 0.01 | 47 | 1016.0 |
| 20260509100128 | 73 | 152 | 1.0 | 5.0 | 0.00 | 0.01 | 0.01 | 47 | 1016.0 |
| 20260509095902 | 73 | 279 | 1.0 | 5.0 | 0.00 | 0.01 | 0.01 | 46 | 1016.1 |
| 20260509095759 | 73 | 279 | 2.0 | 5.0 | 0.00 | 0.01 | 0.01 | 45 | 1016.0 |
| 20260509095702 | 73 | 268 | 4.0 | 5.0 | 0.00 | 0.01 | 0.01 | 46 | 1016.0 |
| 20260509095402 | 73 | 22 | 0.0 | 5.0 | 0.00 | 0.01 | 0.01 | 49 | 1016.1 |
| 20260509095200 | 73 | 348 | 5.0 | 5.0 | 0.00 | 0.01 | 0.01 | 49 | 1016.0 |
| 20260509095102 | 73 | 298 | 2.0 | 4.0 | 0.00 | 0.01 | 0.01 | 47 | 1016.1 |
| 20260509095003 | 73 | 286 | 4.0 | 4.0 | 0.00 | 0.01 | 0.01 | 50 | 1016.1 |
| 20260509094802 | 73 | 336 | 4.0 | 4.0 | 0.00 | 0.01 | 0.01 | 51 | 1016.1 |
| 20260509094702 | 73 | 5 | 4.0 | 4.0 | 0.00 | 0.01 | 0.01 | 51 | 1016.1 |
| 20260509094600 | 73 | 295 | 1.0 | 3.0 | 0.00 | 0.01 | 0.01 | 50 | 1016.1 |
| 20260509094402 | 73 | 33 | 1.0 | 5.0 | 0.00 | 0.01 | 0.01 | 52 | 1016.1 |
| 20260509094259 | 72 | 33 | 1.0 | 5.0 | 0.00 | 0.01 | 0.01 | 52 | 1016.1 |
| 20260509093904 | 72 | 33 | 0.0 | 6.0 | 0.00 | 0.01 | 0.01 | 55 | 1016.2 |
| 20260509093802 | 72 | 33 | 0.0 | 6.0 | 0.00 | 0.01 | 0.01 | 57 | 1016.2 |
| 20260509093602 | 72 | 33 | 2.0 | 6.0 | 0.00 | 0.01 | 0.01 | 53 | 1016.2 |
| 20260509093501 | 72 | 33 | 3.0 | 6.0 | 0.00 | 0.01 | 0.01 | 54 | 1016.1 |
| 20260509093359 | 72 | 24 | 4.0 | 6.0 | 0.00 | 0.01 | 0.01 | 53 | 1016.2 |
| 20260509093206 | 72 | 34 | 4.0 | 6.0 | 0.00 | 0.01 | 0.01 | 53 | 1016.1 |
| 20260509093102 | 72 | 5 | 5.0 | 6.0 | 0.00 | 0.01 | 0.01 | 54 | 1016.1 |
| 20260509093006 | 72 | 19 | 4.0 | 6.0 | 0.00 | 0.01 | 0.01 | 54 | 1016.1 |
| 20260509092904 | 72 | 347 | 3.0 | 5.0 | 0.00 | 0.01 | 0.01 | 54 | 1016.2 |
| 20260509092759 | 72 | 33 | 3.0 | 5.0 | 0.00 | 0.01 | 0.01 | 54 | 1016.2 |
| 20260509092704 | 72 | 344 | 1.0 | 6.0 | 0.00 | 0.01 | 0.01 | 54 | 1016.2 |
| 20260509092601 | 72 | 327 | 1.0 | 6.0 | 0.00 | 0.01 | 0.01 | 57 | 1016.2 |
| 20260509092501 | 72 | 351 | 2.0 | 6.0 | 0.00 | 0.01 | 0.01 | 56 | 1016.2 |
| 20260509092402 | 72 | 326 | 2.0 | 6.0 | 0.00 | 0.01 | 0.01 | 56 | 1016.2 |
| 20260509092305 | 72 | 323 | 2.0 | 6.0 | 0.00 | 0.01 | 0.01 | 54 | 1016.2 |
| 20260509092200 | 72 | 323 | 1.0 | 6.0 | 0.00 | 0.01 | 0.01 | 55 | 1016.2 |
| 20260509092104 | 72 | 323 | 1.0 | 6.0 | 0.00 | 0.01 | 0.01 | 58 | 1016.2 |
| 20260509092003 | 72 | 20 | 1.0 | 6.0 | 0.00 | 0.01 | 0.01 | 58 | 1016.2 |
| 20260509091802 | 71 | 355 | 3.0 | 6.0 | 0.00 | 0.01 | 0.01 | 60 | 1016.2 |
| 20260509091702 | 71 | 350 | 3.0 | 4.0 | 0.00 | 0.01 | 0.01 | 62 | 1016.2 |
| 20260509091559 | 71 | 45 | 0.0 | 4.0 | 0.00 | 0.01 | 0.01 | 62 | 1016.2 |
| 20260509091503 | 71 | 19 | 1.0 | 4.0 | 0.00 | 0.01 | 0.01 | 64 | 1016.2 |
| 20260509091401 | 71 | 86 | 1.0 | 5.0 | 0.00 | 0.01 | 0.01 | 61 | 1016.2 |
| 20260509091259 | 71 | 71 | 3.0 | 6.0 | 0.00 | 0.01 | 0.01 | 57 | 1016.2 |
| 20260509091202 | 71 | 157 | 1.0 | 6.0 | 0.00 | 0.01 | 0.01 | 57 | 1016.2 |
| 20260509091101 | 71 | 157 | 1.0 | 6.0 | 0.00 | 0.01 | 0.01 | 57 | 1016.2 |
| 20260509091000 | 71 | 317 | 0.0 | 6.0 | 0.00 | 0.01 | 0.01 | 59 | 1016.1 |
| 20260509090902 | 71 | 317 | 0.0 | 6.0 | 0.00 | 0.01 | 0.01 | 57 | 1016.2 |
| 20260509090801 | 71 | 317 | 0.0 | 6.0 | 0.00 | 0.01 | 0.01 | 59 | 1016.2 |
| 20260509090700 | 71 | 317 | 0.0 | 6.0 | 0.00 | 0.01 | 0.01 | 61 | 1016.2 |
| 20260509090602 | 70 | 317 | 2.0 | 6.0 | 0.00 | 0.01 | 0.01 | 60 | 1016.2 |
| 20260509090302 | 70 | 273 | 2.0 | 6.0 | 0.00 | 0.01 | 0.01 | 59 | 1016.2 |
| 20260509090059 | 70 | 306 | 3.0 | 6.0 | 0.00 | 0.01 | 0.01 | 59 | 1016.2 |
| 20260509090011 | 70 | 280 | 3.0 | 6.0 | 0.00 | 0.01 | 0.01 | 63 | 1016.2 |
| 20260509085759 | 70 | 262 | 2.0 | 6.0 | 0.00 | 0.01 | 0.01 | 61 | 1016.1 |
| 20260509085703 | 70 | 315 | 0.0 | 6.0 | 0.00 | 0.01 | 0.01 | 59 | 1016.2 |
| 20260509085601 | 70 | 306 | 1.0 | 6.0 | 0.00 | 0.01 | 0.01 | 60 | 1016.2 |
| 20260509085459 | 70 | 300 | 5.0 | 6.0 | 0.00 | 0.01 | 0.01 | 62 | 1016.2 |
| 20260509085404 | 70 | 268 | 3.0 | 6.0 | 0.00 | 0.01 | 0.01 | 63 | 1016.2 |
| 20260509085306 | 70 | 300 | 3.0 | 5.0 | 0.00 | 0.01 | 0.01 | 59 | 1016.2 |
| 20260509085202 | 70 | 300 | 3.0 | 5.0 | 0.00 | 0.01 | 0.01 | 55 | 1016.2 |
| 20260509085002 | 70 | 295 | 2.0 | 5.0 | 0.00 | 0.01 | 0.01 | 58 | 1016.2 |
| 20260509084802 | 70 | 295 | 0.0 | 5.0 | 0.00 | 0.01 | 0.01 | 61 | 1016.2 |
| 20260509084701 | 70 | 295 | 1.0 | 5.0 | 0.00 | 0.01 | 0.01 | 60 | 1016.2 |
| 20260509084600 | 70 | 317 | 2.0 | 5.0 | 0.00 | 0.01 | 0.01 | 61 | 1016.2 |
| 20260509084502 | 70 | 317 | 2.0 | 5.0 | 0.00 | 0.01 | 0.01 | 61 | 1016.2 |
| 20260509084402 | 70 | 319 | 5.0 | 5.0 | 0.00 | 0.01 | 0.01 | 61 | 1016.2 |
| 20260509084259 | 69 | 251 | 1.0 | 5.0 | 0.00 | 0.01 | 0.01 | 63 | 1016.2 |
| 20260509084203 | 69 | 336 | 3.0 | 5.0 | 0.00 | 0.01 | 0.01 | 61 | 1016.3 |
| 20260509084000 | 69 | 326 | 1.0 | 5.0 | 0.00 | 0.01 | 0.01 | 61 | 1016.3 |
| 20260509083903 | 69 | 326 | 0.0 | 5.0 | 0.00 | 0.01 | 0.01 | 63 | 1016.3 |
| 20260509083659 | 69 | 312 | 4.0 | 5.0 | 0.00 | 0.01 | 0.01 | 60 | 1016.3 |
| 20260509083602 | 69 | 322 | 2.0 | 5.0 | 0.00 | 0.01 | 0.01 | 62 | 1016.3 |
| 20260509083501 | 69 | 322 | 4.0 | 5.0 | 0.00 | 0.01 | 0.01 | 62 | 1016.3 |
| 20260509083302 | 69 | 322 | 3.0 | 5.0 | 0.00 | 0.01 | 0.01 | 62 | 1016.3 |
| 20260509083202 | 69 | 272 | 2.0 | 6.0 | 0.00 | 0.01 | 0.01 | 62 | 1016.3 |
| 20260509083059 | 69 | 272 | 3.0 | 6.0 | 0.00 | 0.01 | 0.01 | 65 | 1016.3 |
| 20260509083005 | 69 | 286 | 3.0 | 6.0 | 0.00 | 0.01 | 0.01 | 64 | 1016.3 |
| 20260509082901 | 69 | 347 | 0.0 | 6.0 | 0.00 | 0.01 | 0.01 | 64 | 1016.2 |
| 20260509082759 | 69 | 291 | 2.0 | 6.0 | 0.00 | 0.01 | 0.01 | 65 | 1016.2 |
| 20260509082702 | 69 | 38 | 1.0 | 6.0 | 0.00 | 0.01 | 0.01 | 63 | 1016.2 |
| 20260509082459 | 69 | 40 | 3.0 | 6.0 | 0.00 | 0.01 | 0.01 | 65 | 1016.3 |
| 20260509082159 | 69 | 343 | 2.0 | 5.0 | 0.00 | 0.01 | 0.01 | 64 | 1016.3 |
| 20260509082104 | 69 | 344 | 4.0 | 5.0 | 0.00 | 0.01 | 0.01 | 65 | 1016.3 |
| 20260509082004 | 69 | 355 | 1.0 | 5.0 | 0.00 | 0.01 | 0.01 | 66 | 1016.3 |
| 20260509081402 | 69 | 323 | 1.0 | 6.0 | 0.00 | 0.01 | 0.01 | 65 | 1016.4 |
| 20260509081259 | 69 | 355 | 2.0 | 6.0 | 0.00 | 0.01 | 0.01 | 66 | 1016.4 |
| 20260509081202 | 69 | 336 | 1.0 | 6.0 | 0.00 | 0.01 | 0.01 | 67 | 1016.5 |
| 20260509081102 | 69 | 336 | 4.0 | 6.0 | 0.00 | 0.01 | 0.01 | 65 | 1016.4 |
| 20260509080659 | 68 | 341 | 4.0 | 7.0 | 0.00 | 0.01 | 0.01 | 66 | 1016.5 |
| 20260509080602 | 68 | 18 | 4.0 | 7.0 | 0.00 | 0.01 | 0.01 | 67 | 1016.5 |
| 20260509080502 | 68 | 14 | 5.0 | 7.0 | 0.00 | 0.01 | 0.01 | 67 | 1016.5 |
| 20260509080302 | 68 | 80 | 3.0 | 7.0 | 0.00 | 0.01 | 0.01 | 64 | 1016.4 |
| 20260509080202 | 68 | 5 | 3.0 | 7.0 | 0.00 | 0.01 | 0.01 | 64 | 1016.5 |
| 20260509080117 | 68 | 5 | 1.0 | 7.0 | 0.00 | 0.01 | 0.01 | 68 | 1016.5 |
| 20260509080005 | 68 | 5 | 3.0 | 7.0 | 0.00 | 0.01 | 0.01 | 68 | 1016.5 |
| 20260509075902 | 68 | 5 | 1.0 | 7.0 | 0.00 | 0.01 | 0.01 | 69 | 1016.5 |
| 20260509075759 | 68 | 345 | 4.0 | 7.0 | 0.00 | 0.01 | 0.01 | 70 | 1016.5 |
| 20260509075702 | 68 | 338 | 6.0 | 7.0 | 0.00 | 0.01 | 0.01 | 68 | 1016.5 |
| 20260509075601 | 68 | 26 | 2.0 | 6.0 | 0.00 | 0.01 | 0.01 | 69 | 1016.4 |
| 20260509075500 | 67 | 41 | 5.0 | 6.0 | 0.00 | 0.01 | 0.01 | 69 | 1016.4 |
| 20260509075402 | 67 | 320 | 3.0 | 5.0 | 0.00 | 0.01 | 0.01 | 70 | 1016.4 |
| 20260509075301 | 67 | 320 | 2.0 | 4.0 | 0.00 | 0.01 | 0.01 | 71 | 1016.5 |
| 20260509075159 | 67 | 320 | 3.0 | 4.0 | 0.00 | 0.01 | 0.01 | 71 | 1016.4 |
| 20260509075102 | 67 | 320 | 2.0 | 5.0 | 0.00 | 0.01 | 0.01 | 69 | 1016.5 |
| 20260509075002 | 67 | 300 | 2.0 | 6.0 | 0.00 | 0.01 | 0.01 | 69 | 1016.5 |
| 20260509074859 | 67 | 300 | 1.0 | 6.0 | 0.00 | 0.01 | 0.01 | 69 | 1016.6 |
| 20260509074802 | 67 | 11 | 2.0 | 6.0 | 0.00 | 0.01 | 0.01 | 70 | 1016.5 |
| 20260509074701 | 67 | 11 | 2.0 | 6.0 | 0.00 | 0.01 | 0.01 | 69 | 1016.6 |
| 20260509074502 | 67 | 325 | 2.0 | 6.0 | 0.00 | 0.01 | 0.01 | 69 | 1016.5 |
| 20260509074401 | 67 | 321 | 4.0 | 6.0 | 0.00 | 0.01 | 0.01 | 69 | 1016.6 |
| 20260509074300 | 67 | 297 | 2.0 | 6.0 | 0.00 | 0.01 | 0.01 | 70 | 1016.6 |
| 20260509074202 | 66 | 297 | 4.0 | 6.0 | 0.00 | 0.01 | 0.01 | 70 | 1016.6 |
| 20260509074101 | 66 | 304 | 2.0 | 6.0 | 0.00 | 0.01 | 0.01 | 71 | 1016.6 |
| 20260509073902 | 66 | 309 | 3.0 | 6.0 | 0.00 | 0.01 | 0.01 | 69 | 1016.6 |
| 20260509073802 | 66 | 355 | 2.0 | 5.0 | 0.00 | 0.01 | 0.01 | 68 | 1016.6 |
| 20260509073602 | 66 | 10 | 2.0 | 5.0 | 0.00 | 0.01 | 0.01 | 71 | 1016.6 |
| 20260509073501 | 66 | 10 | 1.0 | 5.0 | 0.00 | 0.01 | 0.01 | 71 | 1016.6 |
| 20260509073302 | 66 | 290 | 3.0 | 5.0 | 0.00 | 0.01 | 0.01 | 70 | 1016.6 |
| 20260509073201 | 66 | 290 | 1.0 | 5.0 | 0.00 | 0.01 | 0.01 | 71 | 1016.6 |
| 20260509073100 | 66 | 290 | 4.0 | 5.0 | 0.00 | 0.01 | 0.01 | 70 | 1016.6 |
| 20260509073003 | 66 | 290 | 1.0 | 5.0 | 0.00 | 0.01 | 0.01 | 71 | 1016.6 |
| 20260509072902 | 66 | 290 | 2.0 | 5.0 | 0.00 | 0.01 | 0.01 | 71 | 1016.6 |
| 20260509072759 | 66 | 290 | 4.0 | 5.0 | 0.00 | 0.01 | 0.01 | 71 | 1016.6 |
| 20260509072704 | 65 | 290 | 4.0 | 5.0 | 0.00 | 0.01 | 0.01 | 71 | 1016.6 |
| 20260509072602 | 65 | 294 | 2.0 | 5.0 | 0.00 | 0.01 | 0.01 | 72 | 1016.6 |
| 20260509072459 | 65 | 321 | 3.0 | 5.0 | 0.00 | 0.01 | 0.01 | 72 | 1016.6 |
| 20260509072402 | 65 | 293 | 4.0 | 6.0 | 0.00 | 0.01 | 0.01 | 72 | 1016.6 |
| 20260509072301 | 65 | 321 | 4.0 | 6.0 | 0.00 | 0.01 | 0.01 | 72 | 1016.6 |
| 20260509072200 | 65 | 303 | 0.0 | 6.0 | 0.00 | 0.01 | 0.01 | 72 | 1016.6 |
| 20260509072102 | 65 | 303 | 1.0 | 6.0 | 0.00 | 0.01 | 0.01 | 72 | 1016.6 |
| 20260509072004 | 65 | 303 | 1.0 | 6.0 | 0.00 | 0.01 | 0.01 | 73 | 1016.6 |
| 20260509071900 | 65 | 303 | 2.0 | 6.0 | 0.00 | 0.01 | 0.01 | 74 | 1016.6 |
| 20260509071803 | 65 | 303 | 1.0 | 6.0 | 0.00 | 0.01 | 0.01 | 74 | 1016.6 |
| 20260509071701 | 65 | 319 | 3.0 | 6.0 | 0.00 | 0.01 | 0.01 | 75 | 1016.6 |
| 20260509071600 | 65 | 302 | 4.0 | 6.0 | 0.00 | 0.01 | 0.01 | 76 | 1016.6 |
| 20260509071503 | 64 | 309 | 3.0 | 6.0 | 0.00 | 0.01 | 0.01 | 76 | 1016.6 |
| 20260509071401 | 64 | 315 | 6.0 | 6.0 | 0.00 | 0.01 | 0.01 | 77 | 1016.6 |
| 20260509071259 | 64 | 317 | 4.0 | 5.0 | 0.00 | 0.01 | 0.01 | 76 | 1016.6 |
| 20260509071203 | 64 | 342 | 2.0 | 5.0 | 0.00 | 0.01 | 0.01 | 79 | 1016.6 |
| 20260509071101 | 64 | 332 | 4.0 | 5.0 | 0.00 | 0.01 | 0.01 | 79 | 1016.6 |
| 20260509071000 | 63 | 340 | 2.0 | 5.0 | 0.00 | 0.01 | 0.01 | 79 | 1016.6 |
| 20260509070902 | 63 | 303 | 2.0 | 5.0 | 0.00 | 0.01 | 0.01 | 79 | 1016.6 |
| 20260509070801 | 63 | 348 | 3.0 | 5.0 | 0.00 | 0.01 | 0.01 | 80 | 1016.5 |
| 20260509070659 | 63 | 273 | 2.0 | 5.0 | 0.00 | 0.01 | 0.01 | 80 | 1016.5 |
| 20260509070602 | 63 | 273 | 2.0 | 5.0 | 0.00 | 0.01 | 0.01 | 82 | 1016.6 |
| 20260509070359 | 62 | 242 | 3.0 | 4.0 | 0.00 | 0.01 | 0.01 | 85 | 1016.6 |
| 20260509070302 | 62 | 281 | 2.0 | 4.0 | 0.00 | 0.01 | 0.01 | 85 | 1016.6 |
| 20260509070059 | 62 | 281 | 3.0 | 4.0 | 0.00 | 0.01 | 0.01 | 86 | 1016.5 |
| 20260509065901 | 61 | 281 | 1.0 | 4.0 | 0.00 | 0.01 | 0.01 | 88 | 1016.5 |
| 20260509065759 | 61 | 281 | 2.0 | 4.0 | 0.00 | 0.01 | 0.01 | 89 | 1016.6 |
| 20260509065702 | 61 | 281 | 2.0 | 4.0 | 0.00 | 0.01 | 0.01 | 89 | 1016.6 |
| 20260509065602 | 60 | 281 | 2.0 | 4.0 | 0.00 | 0.01 | 0.01 | 91 | 1016.6 |
| 20260509065500 | 60 | 281 | 2.0 | 4.0 | 0.00 | 0.01 | 0.01 | 91 | 1016.6 |
| 20260509065305 | 60 | 261 | 3.0 | 4.0 | 0.00 | 0.01 | 0.01 | 93 | 1016.6 |
| 20260509065159 | 59 | 265 | 3.0 | 4.0 | 0.00 | 0.01 | 0.01 | 94 | 1016.6 |
| 20260509065102 | 59 | 250 | 1.0 | 4.0 | 0.00 | 0.01 | 0.01 | 94 | 1016.6 |
| 20260509064859 | 59 | 250 | 3.0 | 4.0 | 0.00 | 0.01 | 0.01 | 95 | 1016.6 |
| 20260509064802 | 59 | 236 | 1.0 | 3.0 | 0.00 | 0.01 | 0.01 | 95 | 1016.5 |
| 20260509064701 | 59 | 236 | 2.0 | 3.0 | 0.00 | 0.01 | 0.01 | 96 | 1016.5 |
| 20260509064559 | 59 | 236 | 1.0 | 3.0 | 0.00 | 0.01 | 0.01 | 96 | 1016.5 |
| 20260509064502 | 59 | 236 | 3.0 | 3.0 | 0.00 | 0.01 | 0.01 | 96 | 1016.5 |
| 20260509064401 | 59 | 236 | 2.0 | 2.0 | 0.00 | 0.01 | 0.01 | 96 | 1016.6 |
| 20260509064202 | 59 | 236 | 1.0 | 2.0 | 0.00 | 0.01 | 0.01 | 97 | 1016.6 |
| 20260509064101 | 59 | 236 | 0.0 | 2.0 | 0.00 | 0.01 | 0.01 | 97 | 1016.6 |
| 20260509064000 | 59 | 236 | 1.0 | 2.0 | 0.00 | 0.01 | 0.01 | 97 | 1016.5 |
| 20260509063802 | 58 | 236 | 0.0 | 2.0 | 0.00 | 0.01 | 0.01 | 96 | 1016.5 |
| 20260509063659 | 58 | 236 | 0.0 | 2.0 | 0.00 | 0.01 | 0.01 | 96 | 1016.5 |
| 20260509063400 | 58 | 236 | 0.0 | 1.0 | 0.00 | 0.01 | 0.01 | 97 | 1016.5 |
| 20260509063303 | 58 | 236 | 0.0 | 1.0 | 0.00 | 0.01 | 0.01 | 97 | 1016.5 |
| 20260509063201 | 58 | 236 | 1.0 | 1.0 | 0.00 | 0.01 | 0.01 | 97 | 1016.5 |
| 20260509063059 | 58 | 236 | 0.0 | 1.0 | 0.00 | 0.01 | 0.01 | 97 | 1016.5 |
| 20260509062901 | 57 | 236 | 1.0 | 1.0 | 0.00 | 0.01 | 0.01 | 97 | 1016.5 |
| 20260509062800 | 57 | 236 | 0.0 | 1.0 | 0.00 | 0.01 | 0.01 | 97 | 1016.5 |
| 20260509062702 | 57 | 236 | 1.0 | 1.0 | 0.00 | 0.01 | 0.01 | 97 | 1016.5 |
| 20260509062601 | 57 | 236 | 0.0 | 2.0 | 0.00 | 0.01 | 0.01 | 97 | 1016.5 |
| 20260509062459 | 57 | 236 | 0.0 | 2.0 | 0.00 | 0.01 | 0.01 | 97 | 1016.5 |
| 20260509062402 | 57 | 236 | 0.0 | 2.0 | 0.00 | 0.01 | 0.01 | 97 | 1016.5 |
| 20260509062306 | 57 | 236 | 0.0 | 2.0 | 0.00 | 0.01 | 0.01 | 97 | 1016.5 |
| 20260509062159 | 57 | 236 | 1.0 | 2.0 | 0.00 | 0.01 | 0.01 | 97 | 1016.5 |
| 20260509062102 | 57 | 236 | 0.0 | 2.0 | 0.00 | 0.01 | 0.01 | 97 | 1016.4 |
| 20260509062002 | 57 | 236 | 0.0 | 2.0 | 0.00 | 0.01 | 0.01 | 97 | 1016.4 |
| 20260509061802 | 56 | 236 | 0.0 | 2.0 | 0.00 | 0.01 | 0.01 | 97 | 1016.5 |
| 20260509061701 | 56 | 236 | 1.0 | 2.0 | 0.00 | 0.01 | 0.01 | 97 | 1016.4 |
| 20260509061503 | 56 | 236 | 1.0 | 1.0 | 0.00 | 0.01 | 0.01 | 97 | 1016.5 |
| 20260509061259 | 56 | 236 | 0.0 | 1.0 | 0.00 | 0.01 | 0.01 | 97 | 1016.5 |
| 20260509061204 | 56 | 236 | 0.0 | 1.0 | 0.00 | 0.01 | 0.01 | 97 | 1016.5 |
| 20260509061101 | 56 | 236 | 1.0 | 1.0 | 0.00 | 0.01 | 0.01 | 97 | 1016.4 |
| 20260509061000 | 56 | 236 | 1.0 | 1.0 | 0.00 | 0.01 | 0.01 | 97 | 1016.5 |
| 20260509060903 | 55 | 236 | 0.0 | 1.0 | 0.00 | 0.01 | 0.01 | 97 | 1016.4 |
| 20260509060801 | 55 | 236 | 1.0 | 1.0 | 0.00 | 0.01 | 0.01 | 97 | 1016.5 |
| 20260509060700 | 55 | 236 | 1.0 | 1.0 | 0.00 | 0.01 | 0.01 | 97 | 1016.5 |
| 20260509060602 | 55 | 236 | 0.0 | 1.0 | 0.00 | 0.01 | 0.01 | 97 | 1016.5 |
| 20260509060501 | 55 | 236 | 0.0 | 1.0 | 0.00 | 0.01 | 0.01 | 97 | 1016.4 |
| 20260509060205 | 55 | 236 | 0.0 | 1.0 | 0.00 | 0.01 | 0.01 | 97 | 1016.4 |
| 20260509060114 | 55 | 236 | 1.0 | 1.0 | 0.00 | 0.01 | 0.01 | 97 | 1016.4 |
| 20260509060007 | 55 | 236 | 0.0 | 1.0 | 0.00 | 0.01 | 0.01 | 97 | 1016.4 |
| 20260509055702 | 55 | 236 | 0.0 | 1.0 | 0.00 | 0.01 | 0.01 | 97 | 1016.4 |
| 20260509055601 | 54 | 236 | 0.0 | 1.0 | 0.00 | 0.01 | 0.01 | 97 | 1016.4 |
| 20260509055459 | 54 | 236 | 0.0 | 1.0 | 0.00 | 0.01 | 0.01 | 97 | 1016.3 |
| 20260509055402 | 54 | 236 | 1.0 | 1.0 | 0.00 | 0.01 | 0.01 | 97 | 1016.3 |
| 20260509055302 | 54 | 236 | 1.0 | 1.0 | 0.00 | 0.01 | 0.01 | 97 | 1016.3 |
| 20260509055159 | 54 | 236 | 1.0 | 1.0 | 0.00 | 0.01 | 0.01 | 97 | 1016.3 |
| 20260509054859 | 54 | 236 | 1.0 | 1.0 | 0.00 | 0.01 | 0.01 | 97 | 1016.4 |
| 20260509054802 | 54 | 236 | 0.0 | 1.0 | 0.00 | 0.01 | 0.01 | 97 | 1016.3 |
| 20260509054702 | 53 | 236 | 0.0 | 1.0 | 0.00 | 0.01 | 0.01 | 97 | 1016.4 |
| 20260509054600 | 53 | 236 | 0.0 | 1.0 | 0.00 | 0.01 | 0.01 | 97 | 1016.4 |
| 20260509054502 | 53 | 236 | 0.0 | 1.0 | 0.00 | 0.01 | 0.01 | 97 | 1016.4 |
| 20260509054401 | 53 | 236 | 0.0 | 1.0 | 0.00 | 0.01 | 0.01 | 97 | 1016.4 |
| 20260509054300 | 53 | 236 | 0.0 | 1.0 | 0.00 | 0.01 | 0.01 | 97 | 1016.4 |
| 20260509054202 | 53 | 236 | 0.0 | 1.0 | 0.00 | 0.01 | 0.01 | 97 | 1016.4 |
| 20260509054101 | 53 | 236 | 0.0 | 1.0 | 0.00 | 0.01 | 0.01 | 97 | 1016.4 |
| 20260509054000 | 53 | 236 | 0.0 | 1.0 | 0.00 | 0.01 | 0.01 | 97 | 1016.4 |
| 20260509053902 | 53 | 236 | 0.0 | 1.0 | 0.00 | 0.01 | 0.01 | 97 | 1016.4 |
| 20260509053801 | 53 | 236 | 0.0 | 1.0 | 0.00 | 0.01 | 0.01 | 97 | 1016.4 |
| 20260509053659 | 53 | 236 | 0.0 | 1.0 | 0.00 | 0.01 | 0.01 | 97 | 1016.4 |
| 20260509053603 | 53 | 236 | 0.0 | 1.0 | 0.00 | 0.01 | 0.01 | 97 | 1016.4 |
| 20260509053302 | 53 | 236 | 0.0 | 1.0 | 0.00 | 0.01 | 0.01 | 97 | 1016.4 |
| 20260509053201 | 53 | 236 | 0.0 | 1.0 | 0.00 | 0.01 | 0.01 | 97 | 1016.4 |
| 20260509053100 | 53 | 236 | 0.0 | 1.0 | 0.00 | 0.01 | 0.01 | 97 | 1016.4 |
| 20260509053003 | 53 | 236 | 0.0 | 1.0 | 0.00 | 0.01 | 0.01 | 97 | 1016.4 |
| 20260509052903 | 52 | 236 | 1.0 | 1.0 | 0.00 | 0.01 | 0.01 | 97 | 1016.4 |
| 20260509052702 | 52 | 236 | 0.0 | 1.0 | 0.00 | 0.01 | 0.01 | 97 | 1016.4 |
| 20260509052601 | 52 | 236 | 0.0 | 1.0 | 0.00 | 0.01 | 0.01 | 97 | 1016.4 |
| 20260509052500 | 52 | 236 | 0.0 | 1.0 | 0.00 | 0.01 | 0.01 | 97 | 1016.4 |
| 20260509052401 | 52 | 236 | 0.0 | 1.0 | 0.00 | 0.01 | 0.01 | 97 | 1016.3 |
| 20260509052306 | 52 | 236 | 0.0 | 1.0 | 0.00 | 0.01 | 0.01 | 97 | 1016.4 |
| 20260509052200 | 51 | 236 | 0.0 | 1.0 | 0.00 | 0.01 | 0.01 | 97 | 1016.3 |
| 20260509052102 | 51 | 236 | 0.0 | 2.0 | 0.00 | 0.01 | 0.01 | 97 | 1016.3 |
| 20260509052002 | 51 | 236 | 1.0 | 2.0 | 0.00 | 0.01 | 0.01 | 97 | 1016.3 |
| 20260509051859 | 51 | 237 | 1.0 | 2.0 | 0.00 | 0.01 | 0.01 | 97 | 1016.4 |
| 20260509051802 | 51 | 237 | 0.0 | 2.0 | 0.00 | 0.01 | 0.01 | 97 | 1016.3 |
| 20260509051703 | 51 | 237 | 0.0 | 2.0 | 0.00 | 0.01 | 0.01 | 97 | 1016.3 |
| 20260509051559 | 51 | 237 | 0.0 | 2.0 | 0.00 | 0.01 | 0.01 | 97 | 1016.4 |
| 20260509051502 | 51 | 237 | 0.0 | 2.0 | 0.00 | 0.01 | 0.01 | 97 | 1016.3 |
| 20260509051401 | 51 | 237 | 0.0 | 2.0 | 0.00 | 0.01 | 0.01 | 97 | 1016.3 |
| 20260509051259 | 50 | 237 | 1.0 | 2.0 | 0.00 | 0.01 | 0.01 | 97 | 1016.3 |
| 20260509051202 | 50 | 236 | 1.0 | 2.0 | 0.00 | 0.01 | 0.01 | 97 | 1016.2 |
| 20260509051101 | 50 | 236 | 2.0 | 2.0 | 0.00 | 0.01 | 0.01 | 97 | 1016.3 |
| 20260509051000 | 50 | 236 | 2.0 | 2.0 | 0.00 | 0.01 | 0.01 | 97 | 1016.3 |
| 20260509050902 | 50 | 236 | 0.0 | 2.0 | 0.00 | 0.01 | 0.01 | 97 | 1016.3 |
| 20260509050801 | 50 | 236 | 1.0 | 2.0 | 0.00 | 0.01 | 0.01 | 97 | 1016.3 |
| 20260509050659 | 49 | 236 | 1.0 | 2.0 | 0.00 | 0.01 | 0.01 | 97 | 1016.3 |
| 20260509050602 | 49 | 236 | 1.0 | 2.0 | 0.00 | 0.01 | 0.01 | 97 | 1016.3 |
| 20260509050501 | 49 | 236 | 1.0 | 2.0 | 0.00 | 0.01 | 0.01 | 97 | 1016.3 |
| 20260509050359 | 49 | 236 | 0.0 | 0.0 | 0.00 | 0.01 | 0.01 | 97 | 1016.3 |
| 20260509050059 | 48 | 236 | 0.0 | 0.0 | 0.00 | 0.01 | 0.01 | 97 | 1016.3 |
| 20260509050006 | 48 | 236 | 0.0 | 0.0 | 0.00 | 0.01 | 0.01 | 97 | 1016.3 |
| 20260509045901 | 48 | 236 | 0.0 | 0.0 | 0.00 | 0.01 | 0.01 | 97 | 1016.3 |
| 20260509045800 | 48 | 236 | 0.0 | 0.0 | 0.00 | 0.01 | 0.01 | 97 | 1016.3 |
| 20260509045702 | 48 | 236 | 0.0 | 0.0 | 0.00 | 0.01 | 0.01 | 96 | 1016.3 |
| 20260509045459 | 48 | 236 | 0.0 | 0.0 | 0.00 | 0.01 | 0.01 | 96 | 1016.2 |
| 20260509045402 | 48 | 236 | 0.0 | 0.0 | 0.00 | 0.01 | 0.01 | 97 | 1016.2 |
| 20260509045301 | 48 | 236 | 0.0 | 0.0 | 0.00 | 0.01 | 0.01 | 97 | 1016.2 |
| 20260509045159 | 48 | 236 | 0.0 | 0.0 | 0.00 | 0.01 | 0.01 | 97 | 1016.2 |
| 20260509045002 | 47 | 236 | 0.0 | 0.0 | 0.00 | 0.01 | 0.01 | 96 | 1016.2 |
| 20260509044859 | 47 | 236 | 0.0 | 0.0 | 0.00 | 0.01 | 0.01 | 96 | 1016.2 |
| 20260509044802 | 47 | 236 | 0.0 | 0.0 | 0.00 | 0.01 | 0.01 | 96 | 1016.1 |
| 20260509044701 | 47 | 236 | 0.0 | 0.0 | 0.00 | 0.01 | 0.01 | 96 | 1016.1 |
| 20260509044559 | 47 | 236 | 0.0 | 0.0 | 0.00 | 0.01 | 0.01 | 96 | 1016.1 |
| 20260509044502 | 47 | 236 | 0.0 | 0.0 | 0.00 | 0.01 | 0.01 | 96 | 1016.1 |
| 20260509044401 | 47 | 236 | 0.0 | 0.0 | 0.00 | 0.01 | 0.01 | 96 | 1016.0 |
| 20260509044259 | 46 | 236 | 0.0 | 0.0 | 0.00 | 0.01 | 0.01 | 96 | 1016.1 |
| 20260509044202 | 46 | 236 | 0.0 | 0.0 | 0.00 | 0.01 | 0.01 | 96 | 1016.0 |
| 20260509044101 | 46 | 236 | 0.0 | 0.0 | 0.00 | 0.01 | 0.01 | 96 | 1016.0 |
| 20260509044000 | 46 | 236 | 0.0 | 0.0 | 0.00 | 0.01 | 0.01 | 96 | 1016.0 |
| 20260509043902 | 46 | 236 | 0.0 | 0.0 | 0.00 | 0.01 | 0.01 | 96 | 1016.0 |
| 20260509043801 | 46 | 236 | 0.0 | 1.0 | 0.00 | 0.01 | 0.01 | 96 | 1015.9 |
| 20260509043700 | 46 | 236 | 0.0 | 1.0 | 0.00 | 0.01 | 0.01 | 96 | 1016.0 |
| 20260509043602 | 46 | 236 | 0.0 | 2.0 | 0.00 | 0.01 | 0.01 | 96 | 1015.9 |
| 20260509043502 | 46 | 236 | 0.0 | 2.0 | 0.00 | 0.01 | 0.01 | 96 | 1015.9 |
| 20260509043301 | 46 | 236 | 0.0 | 2.0 | 0.00 | 0.01 | 0.01 | 96 | 1015.9 |
| 20260509043201 | 46 | 236 | 0.0 | 2.0 | 0.00 | 0.01 | 0.01 | 96 | 1015.9 |
| 20260509043059 | 46 | 235 | 0.0 | 2.0 | 0.00 | 0.01 | 0.01 | 96 | 1015.9 |
| 20260509043003 | 46 | 235 | 0.0 | 2.0 | 0.00 | 0.01 | 0.01 | 96 | 1015.9 |
| 20260509042759 | 46 | 235 | 0.0 | 2.0 | 0.00 | 0.01 | 0.01 | 96 | 1015.9 |
| 20260509042701 | 46 | 235 | 1.0 | 2.0 | 0.00 | 0.01 | 0.01 | 96 | 1015.9 |
| 20260509042601 | 46 | 235 | 1.0 | 2.0 | 0.00 | 0.01 | 0.01 | 96 | 1015.9 |
| 20260509042459 | 46 | 246 | 1.0 | 2.0 | 0.00 | 0.01 | 0.01 | 96 | 1015.9 |
| 20260509042401 | 46 | 246 | 0.0 | 2.0 | 0.00 | 0.01 | 0.01 | 96 | 1015.8 |
| 20260509042306 | 46 | 246 | 1.0 | 2.0 | 0.00 | 0.01 | 0.01 | 96 | 1015.8 |
| 20260509042102 | 46 | 246 | 0.0 | 2.0 | 0.00 | 0.01 | 0.01 | 96 | 1015.8 |
| 20260509042002 | 46 | 246 | 0.0 | 2.0 | 0.00 | 0.01 | 0.01 | 96 | 1015.8 |
| 20260509041859 | 46 | 246 | 0.0 | 2.0 | 0.00 | 0.01 | 0.01 | 96 | 1015.9 |
| 20260509041802 | 46 | 246 | 0.0 | 2.0 | 0.00 | 0.01 | 0.01 | 96 | 1015.8 |
| 20260509041701 | 46 | 246 | 1.0 | 2.0 | 0.00 | 0.01 | 0.01 | 96 | 1015.8 |
| 20260509041559 | 46 | 246 | 2.0 | 2.0 | 0.00 | 0.01 | 0.01 | 96 | 1015.8 |
| 20260509041401 | 46 | 246 | 1.0 | 2.0 | 0.00 | 0.01 | 0.01 | 96 | 1015.8 |
| 20260509041202 | 46 | 246 | 1.0 | 2.0 | 0.00 | 0.01 | 0.01 | 96 | 1015.8 |
| 20260509041101 | 46 | 267 | 1.0 | 2.0 | 0.00 | 0.01 | 0.01 | 96 | 1015.8 |
| 20260509041000 | 46 | 267 | 1.0 | 3.0 | 0.00 | 0.01 | 0.01 | 96 | 1015.8 |
| 20260509040902 | 46 | 267 | 0.0 | 3.0 | 0.00 | 0.01 | 0.01 | 96 | 1015.8 |
| 20260509040801 | 46 | 267 | 1.0 | 3.0 | 0.01 | 0.01 | 0.01 | 96 | 1015.8 |
| 20260509040659 | 46 | 267 | 1.0 | 3.0 | 0.01 | 0.01 | 0.01 | 96 | 1015.8 |
| 20260509040601 | 46 | 267 | 2.0 | 3.0 | 0.01 | 0.01 | 0.01 | 96 | 1015.8 |
| 20260509040501 | 46 | 267 | 1.0 | 3.0 | 0.01 | 0.01 | 0.01 | 96 | 1015.8 |
| 20260509040359 | 46 | 267 | 1.0 | 3.0 | 0.01 | 0.01 | 0.01 | 96 | 1015.8 |
| 20260509040302 | 46 | 267 | 1.0 | 3.0 | 0.01 | 0.01 | 0.01 | 96 | 1015.8 |
| 20260509040202 | 45 | 267 | 2.0 | 3.0 | 0.01 | 0.01 | 0.01 | 96 | 1015.8 |
| 20260509035901 | 45 | 267 | 2.0 | 3.0 | 0.01 | 0.01 | 0.01 | 96 | 1015.8 |
| 20260509035759 | 45 | 267 | 2.0 | 3.0 | 0.01 | 0.01 | 0.01 | 95 | 1015.7 |
| 20260509035701 | 45 | 265 | 2.0 | 3.0 | 0.01 | 0.01 | 0.01 | 95 | 1015.7 |
| 20260509035601 | 45 | 264 | 2.0 | 3.0 | 0.01 | 0.01 | 0.01 | 95 | 1015.8 |
| 20260509035459 | 45 | 264 | 1.0 | 3.0 | 0.01 | 0.01 | 0.01 | 95 | 1015.7 |
| 20260509035403 | 45 | 264 | 1.0 | 3.0 | 0.01 | 0.01 | 0.01 | 95 | 1015.7 |
| 20260509035305 | 45 | 264 | 2.0 | 3.0 | 0.01 | 0.01 | 0.01 | 95 | 1015.8 |
| 20260509035200 | 46 | 265 | 1.0 | 3.0 | 0.01 | 0.01 | 0.01 | 95 | 1015.8 |
| 20260509035102 | 46 | 217 | 1.0 | 3.0 | 0.01 | 0.01 | 0.01 | 95 | 1015.8 |
| 20260509035002 | 46 | 217 | 2.0 | 3.0 | 0.01 | 0.01 | 0.01 | 95 | 1015.8 |
| 20260509034859 | 46 | 208 | 1.0 | 3.0 | 0.01 | 0.01 | 0.01 | 95 | 1015.8 |
| 20260509034801 | 46 | 208 | 2.0 | 3.0 | 0.01 | 0.01 | 0.01 | 95 | 1015.8 |
| 20260509034702 | 46 | 208 | 1.0 | 3.0 | 0.01 | 0.01 | 0.01 | 95 | 1015.8 |
| 20260509034559 | 46 | 208 | 1.0 | 3.0 | 0.01 | 0.01 | 0.01 | 95 | 1015.7 |
| 20260509034502 | 46 | 208 | 2.0 | 3.0 | 0.01 | 0.01 | 0.01 | 95 | 1015.7 |
| 20260509034401 | 46 | 208 | 2.0 | 3.0 | 0.01 | 0.01 | 0.01 | 95 | 1015.7 |
| 20260509034259 | 46 | 208 | 2.0 | 3.0 | 0.01 | 0.01 | 0.01 | 95 | 1015.7 |
| 20260509034202 | 46 | 208 | 2.0 | 3.0 | 0.01 | 0.01 | 0.01 | 95 | 1015.7 |
| 20260509034101 | 46 | 208 | 2.0 | 3.0 | 0.01 | 0.01 | 0.01 | 95 | 1015.7 |
| 20260509034000 | 46 | 208 | 2.0 | 3.0 | 0.01 | 0.01 | 0.01 | 95 | 1015.7 |
| 20260509033902 | 46 | 208 | 2.0 | 3.0 | 0.01 | 0.01 | 0.01 | 95 | 1015.7 |
| 20260509033659 | 46 | 208 | 2.0 | 3.0 | 0.01 | 0.01 | 0.01 | 95 | 1015.7 |
| 20260509033501 | 46 | 148 | 1.0 | 2.0 | 0.01 | 0.01 | 0.01 | 95 | 1015.7 |
| 20260509033359 | 46 | 148 | 1.0 | 2.0 | 0.01 | 0.01 | 0.01 | 95 | 1015.7 |
| 20260509033302 | 46 | 148 | 1.0 | 2.0 | 0.01 | 0.01 | 0.01 | 96 | 1015.7 |
| 20260509033201 | 46 | 148 | 1.0 | 1.0 | 0.01 | 0.01 | 0.01 | 95 | 1015.7 |
| 20260509033004 | 46 | 148 | 1.0 | 1.0 | 0.01 | 0.01 | 0.01 | 96 | 1015.7 |
| 20260509032902 | 46 | 148 | 1.0 | 2.0 | 0.01 | 0.01 | 0.01 | 96 | 1015.7 |
| 20260509032759 | 46 | 148 | 0.0 | 2.0 | 0.01 | 0.01 | 0.01 | 96 | 1015.7 |
| 20260509032702 | 46 | 148 | 0.0 | 3.0 | 0.01 | 0.01 | 0.01 | 96 | 1015.7 |
| 20260509032601 | 46 | 148 | 1.0 | 3.0 | 0.01 | 0.01 | 0.01 | 96 | 1015.7 |
| 20260509032500 | 46 | 148 | 1.0 | 3.0 | 0.01 | 0.01 | 0.01 | 96 | 1015.7 |
| 20260509032002 | 46 | 148 | 1.0 | 3.0 | 0.01 | 0.01 | 0.01 | 96 | 1015.8 |
| 20260509031859 | 46 | 148 | 1.0 | 3.0 | 0.01 | 0.01 | 0.01 | 96 | 1015.8 |
| 20260509031801 | 46 | 148 | 1.0 | 3.0 | 0.01 | 0.01 | 0.01 | 96 | 1015.8 |
| 20260509031702 | 46 | 148 | 3.0 | 3.0 | 0.01 | 0.01 | 0.01 | 95 | 1015.7 |
| 20260509031601 | 46 | 148 | 2.0 | 3.0 | 0.01 | 0.01 | 0.01 | 95 | 1015.8 |
| 20260509031201 | 46 | 148 | 1.0 | 3.0 | 0.01 | 0.01 | 0.01 | 95 | 1015.7 |
| 20260509031101 | 46 | 148 | 1.0 | 3.0 | 0.01 | 0.01 | 0.01 | 95 | 1015.7 |
| 20260509030901 | 46 | 148 | 0.0 | 3.0 | 0.01 | 0.01 | 0.01 | 95 | 1015.7 |
| 20260509030802 | 46 | 148 | 0.0 | 3.0 | 0.00 | 0.00 | 0.00 | 95 | 1015.7 |
| 20260509030659 | 46 | 148 | 1.0 | 3.0 | 0.00 | 0.00 | 0.00 | 96 | 1015.6 |
| 20260509030601 | 46 | 148 | 2.0 | 3.0 | 0.00 | 0.00 | 0.00 | 96 | 1015.7 |
| 20260509030501 | 46 | 148 | 3.0 | 3.0 | 0.00 | 0.00 | 0.00 | 96 | 1015.6 |
| 20260509030359 | 46 | 247 | 3.0 | 3.0 | 0.00 | 0.00 | 0.00 | 96 | 1015.6 |
| 20260509030202 | 46 | 247 | 1.0 | 3.0 | 0.00 | 0.00 | 0.00 | 96 | 1015.7 |
| 20260509030059 | 46 | 247 | 2.0 | 3.0 | 0.00 | 0.00 | 0.00 | 96 | 1015.7 |
| 20260509030004 | 46 | 247 | 1.0 | 3.0 | 0.00 | 0.00 | 0.00 | 95 | 1015.7 |
| 20260509025901 | 46 | 247 | 1.0 | 3.0 | 0.00 | 0.00 | 0.00 | 95 | 1015.7 |
| 20260509025759 | 46 | 247 | 0.0 | 3.0 | 0.00 | 0.00 | 0.00 | 95 | 1015.7 |
| 20260509025702 | 46 | 247 | 0.0 | 3.0 | 0.00 | 0.00 | 0.00 | 95 | 1015.7 |
| 20260509025601 | 46 | 247 | 2.0 | 3.0 | 0.00 | 0.00 | 0.00 | 95 | 1015.8 |
| 20260509025459 | 46 | 247 | 1.0 | 3.0 | 0.00 | 0.00 | 0.00 | 95 | 1015.7 |
| 20260509025402 | 46 | 247 | 1.0 | 3.0 | 0.00 | 0.00 | 0.00 | 95 | 1015.8 |
| 20260509025301 | 46 | 247 | 2.0 | 3.0 | 0.00 | 0.00 | 0.00 | 95 | 1015.7 |
| 20260509025159 | 46 | 247 | 1.0 | 3.0 | 0.00 | 0.00 | 0.00 | 95 | 1015.8 |
| 20260509025102 | 46 | 247 | 2.0 | 3.0 | 0.00 | 0.00 | 0.00 | 95 | 1015.8 |
| 20260509025002 | 46 | 247 | 2.0 | 3.0 | 0.00 | 0.00 | 0.00 | 95 | 1015.8 |
| 20260509024859 | 46 | 247 | 2.0 | 3.0 | 0.00 | 0.00 | 0.00 | 95 | 1015.7 |
| 20260509024801 | 46 | 247 | 2.0 | 3.0 | 0.00 | 0.00 | 0.00 | 95 | 1015.8 |
| 20260509024702 | 46 | 247 | 1.0 | 3.0 | 0.00 | 0.00 | 0.00 | 95 | 1015.8 |
| 20260509024600 | 46 | 247 | 2.0 | 3.0 | 0.00 | 0.00 | 0.00 | 95 | 1015.7 |
| 20260509024502 | 46 | 247 | 2.0 | 3.0 | 0.00 | 0.00 | 0.00 | 95 | 1015.8 |
| 20260509024401 | 46 | 247 | 1.0 | 3.0 | 0.00 | 0.00 | 0.00 | 95 | 1015.7 |
| 20260509024259 | 46 | 247 | 2.0 | 3.0 | 0.00 | 0.00 | 0.00 | 95 | 1015.8 |
| 20260509024201 | 46 | 247 | 2.0 | 4.0 | 0.00 | 0.00 | 0.00 | 95 | 1015.8 |
| 20260509024101 | 46 | 247 | 3.0 | 4.0 | 0.00 | 0.00 | 0.00 | 95 | 1015.8 |
| 20260509024000 | 46 | 247 | 2.0 | 4.0 | 0.00 | 0.00 | 0.00 | 95 | 1015.8 |
| 20260509023902 | 46 | 247 | 2.0 | 4.0 | 0.00 | 0.00 | 0.00 | 95 | 1015.8 |
| 20260509023801 | 46 | 247 | 3.0 | 4.0 | 0.00 | 0.00 | 0.00 | 95 | 1015.8 |
| 20260509023659 | 46 | 247 | 2.0 | 4.0 | 0.00 | 0.00 | 0.00 | 95 | 1015.8 |
| 20260509023602 | 46 | 247 | 3.0 | 4.0 | 0.00 | 0.00 | 0.00 | 95 | 1015.8 |
| 20260509023502 | 46 | 247 | 3.0 | 4.0 | 0.00 | 0.00 | 0.00 | 95 | 1015.8 |
| 20260509023359 | 46 | 247 | 2.0 | 4.0 | 0.00 | 0.00 | 0.00 | 95 | 1015.8 |
| 20260509023302 | 46 | 247 | 3.0 | 4.0 | 0.00 | 0.00 | 0.00 | 95 | 1015.8 |
| 20260509023100 | 46 | 247 | 2.0 | 3.0 | 0.00 | 0.00 | 0.00 | 95 | 1015.8 |
| 20260509023004 | 46 | 247 | 2.0 | 3.0 | 0.00 | 0.00 | 0.00 | 95 | 1015.8 |
| 20260509022901 | 46 | 247 | 2.0 | 3.0 | 0.00 | 0.00 | 0.00 | 95 | 1015.8 |
| 20260509022759 | 46 | 247 | 2.0 | 3.0 | 0.00 | 0.00 | 0.00 | 95 | 1015.8 |
| 20260509022702 | 46 | 247 | 2.0 | 3.0 | 0.00 | 0.00 | 0.00 | 95 | 1015.9 |
| 20260509022601 | 46 | 247 | 2.0 | 3.0 | 0.00 | 0.00 | 0.00 | 95 | 1015.9 |
| 20260509022459 | 46 | 247 | 2.0 | 3.0 | 0.00 | 0.00 | 0.00 | 95 | 1015.8 |
| 20260509022305 | 46 | 247 | 1.0 | 3.0 | 0.00 | 0.00 | 0.00 | 95 | 1015.9 |
| 20260509022159 | 46 | 247 | 2.0 | 3.0 | 0.00 | 0.00 | 0.00 | 95 | 1015.9 |
| 20260509022102 | 46 | 247 | 2.0 | 3.0 | 0.00 | 0.00 | 0.00 | 95 | 1015.9 |
| 20260509022001 | 46 | 247 | 2.0 | 3.0 | 0.00 | 0.00 | 0.00 | 95 | 1015.9 |
| 20260509021859 | 46 | 247 | 2.0 | 3.0 | 0.00 | 0.00 | 0.00 | 95 | 1015.9 |
| 20260509021802 | 46 | 247 | 2.0 | 2.0 | 0.00 | 0.00 | 0.00 | 95 | 1015.8 |
| 20260509021701 | 46 | 247 | 2.0 | 2.0 | 0.00 | 0.00 | 0.00 | 95 | 1015.8 |
| 20260509021504 | 47 | 247 | 2.0 | 2.0 | 0.00 | 0.00 | 0.00 | 95 | 1015.8 |
| 20260509021402 | 47 | 247 | 2.0 | 2.0 | 0.00 | 0.00 | 0.00 | 95 | 1015.8 |
| 20260509021201 | 47 | 247 | 2.0 | 2.0 | 0.00 | 0.00 | 0.00 | 95 | 1015.8 |
| 20260509021104 | 47 | 247 | 1.0 | 2.0 | 0.00 | 0.00 | 0.00 | 95 | 1015.8 |
| 20260509021000 | 47 | 247 | 1.0 | 1.0 | 0.00 | 0.00 | 0.00 | 95 | 1015.8 |
| 20260509020902 | 47 | 247 | 0.0 | 1.0 | 0.00 | 0.00 | 0.00 | 95 | 1015.8 |
| 20260509020801 | 47 | 247 | 0.0 | 1.0 | 0.00 | 0.00 | 0.00 | 95 | 1015.8 |
| 20260509020659 | 47 | 247 | 0.0 | 2.0 | 0.00 | 0.00 | 0.00 | 95 | 1015.8 |
| 20260509020502 | 47 | 247 | 0.0 | 2.0 | 0.00 | 0.00 | 0.00 | 95 | 1015.8 |
| 20260509020359 | 47 | 247 | 0.0 | 2.0 | 0.00 | 0.00 | 0.00 | 95 | 1015.8 |
| 20260509020301 | 47 | 247 | 0.0 | 2.0 | 0.00 | 0.00 | 0.00 | 95 | 1015.8 |
| 20260509020201 | 47 | 247 | 0.0 | 2.0 | 0.00 | 0.00 | 0.00 | 95 | 1015.8 |
| 20260509020110 | 47 | 247 | 0.0 | 2.0 | 0.00 | 0.00 | 0.00 | 95 | 1015.8 |
| 20260509020006 | 47 | 247 | 0.0 | 2.0 | 0.00 | 0.00 | 0.00 | 95 | 1015.8 |
| 20260509015901 | 48 | 247 | 0.0 | 2.0 | 0.00 | 0.00 | 0.00 | 95 | 1015.8 |
| 20260509015759 | 48 | 247 | 1.0 | 2.0 | 0.00 | 0.00 | 0.00 | 95 | 1015.7 |
| 20260509015702 | 48 | 247 | 1.0 | 2.0 | 0.00 | 0.00 | 0.00 | 95 | 1015.7 |
| 20260509015601 | 48 | 247 | 1.0 | 2.0 | 0.00 | 0.00 | 0.00 | 95 | 1015.7 |
| 20260509015459 | 48 | 247 | 1.0 | 2.0 | 0.00 | 0.00 | 0.00 | 96 | 1015.7 |
| 20260509015402 | 48 | 247 | 1.0 | 2.0 | 0.00 | 0.00 | 0.00 | 96 | 1015.7 |
| 20260509015301 | 48 | 247 | 1.0 | 2.0 | 0.00 | 0.00 | 0.00 | 96 | 1015.7 |
| 20260509015159 | 48 | 247 | 1.0 | 2.0 | 0.00 | 0.00 | 0.00 | 96 | 1015.7 |
| 20260509015102 | 48 | 247 | 1.0 | 2.0 | 0.00 | 0.00 | 0.00 | 96 | 1015.6 |
| 20260509014859 | 47 | 176 | 2.0 | 2.0 | 0.00 | 0.00 | 0.00 | 96 | 1015.7 |
| 20260509014802 | 47 | 176 | 2.0 | 2.0 | 0.00 | 0.00 | 0.00 | 96 | 1015.7 |
| 20260509014701 | 47 | 176 | 2.0 | 2.0 | 0.00 | 0.00 | 0.00 | 96 | 1015.7 |
| 20260509014503 | 47 | 176 | 2.0 | 2.0 | 0.00 | 0.00 | 0.00 | 96 | 1015.7 |
| 20260509014401 | 47 | 176 | 2.0 | 2.0 | 0.00 | 0.00 | 0.00 | 95 | 1015.6 |
| 20260509014259 | 47 | 176 | 2.0 | 2.0 | 0.00 | 0.00 | 0.00 | 95 | 1015.7 |
| 20260509014201 | 47 | 176 | 2.0 | 2.0 | 0.00 | 0.00 | 0.00 | 95 | 1015.7 |
| 20260509014101 | 47 | 176 | 1.0 | 2.0 | 0.00 | 0.00 | 0.00 | 95 | 1015.6 |
| 20260509014000 | 47 | 176 | 1.0 | 2.0 | 0.00 | 0.00 | 0.00 | 95 | 1015.6 |
| 20260509013902 | 47 | 176 | 1.0 | 2.0 | 0.00 | 0.00 | 0.00 | 95 | 1015.6 |
| 20260509013659 | 46 | 176 | 2.0 | 2.0 | 0.00 | 0.00 | 0.00 | 95 | 1015.6 |
| 20260509013602 | 47 | 176 | 2.0 | 2.0 | 0.00 | 0.00 | 0.00 | 95 | 1015.6 |
| 20260509013501 | 47 | 176 | 0.0 | 2.0 | 0.00 | 0.00 | 0.00 | 95 | 1015.5 |
| 20260509013302 | 47 | 176 | 1.0 | 2.0 | 0.00 | 0.00 | 0.00 | 95 | 1015.6 |
| 20260509013059 | 47 | 176 | 0.0 | 2.0 | 0.00 | 0.00 | 0.00 | 95 | 1015.6 |
| 20260509013003 | 47 | 176 | 0.0 | 2.0 | 0.00 | 0.00 | 0.00 | 95 | 1015.6 |
| 20260509012901 | 47 | 176 | 0.0 | 2.0 | 0.00 | 0.00 | 0.00 | 95 | 1015.6 |
| 20260509012759 | 47 | 176 | 0.0 | 2.0 | 0.00 | 0.00 | 0.00 | 95 | 1015.5 |
| 20260509012701 | 47 | 176 | 0.0 | 2.0 | 0.00 | 0.00 | 0.00 | 95 | 1015.5 |
| 20260509012601 | 47 | 176 | 1.0 | 2.0 | 0.00 | 0.00 | 0.00 | 95 | 1015.6 |
| 20260509012402 | 47 | 176 | 0.0 | 2.0 | 0.00 | 0.00 | 0.00 | 95 | 1015.6 |
| 20260509012301 | 47 | 176 | 1.0 | 2.0 | 0.00 | 0.00 | 0.00 | 99 | 1015.6 |
| 20260509012159 | 47 | 176 | 1.0 | 2.0 | 0.00 | 0.00 | 0.00 | 95 | 1015.5 |
| 20260509012102 | 47 | 176 | 2.0 | 2.0 | 0.00 | 0.00 | 0.00 | 95 | 1015.5 |
| 20260509012003 | 47 | 176 | 2.0 | 2.0 | 0.00 | 0.00 | 0.00 | 95 | 1015.5 |
| 20260509011802 | 47 | 176 | 1.0 | 2.0 | 0.00 | 0.00 | 0.00 | 95 | 1015.5 |
| 20260509011700 | 47 | 176 | 2.0 | 2.0 | 0.00 | 0.00 | 0.00 | 95 | 1015.5 |
| 20260509011600 | 47 | 176 | 1.0 | 2.0 | 0.00 | 0.00 | 0.00 | 94 | 1015.5 |
| 20260509011504 | 47 | 176 | 0.0 | 1.0 | 0.00 | 0.00 | 0.00 | 94 | 1015.5 |
| 20260509011406 | 47 | 176 | 0.0 | 1.0 | 0.00 | 0.00 | 0.00 | 94 | 1015.5 |
| 20260509011205 | 47 | 176 | 0.0 | 1.0 | 0.00 | 0.00 | 0.00 | 94 | 1015.6 |
| 20260509011104 | 47 | 176 | 0.0 | 1.0 | 0.00 | 0.00 | 0.00 | 94 | 1015.5 |
| 20260509011005 | 47 | 176 | 0.0 | 2.0 | 0.00 | 0.00 | 0.00 | 94 | 1015.5 |
| 20260509010907 | 47 | 176 | 0.0 | 2.0 | 0.00 | 0.00 | 0.00 | 95 | 1015.5 |
| 20260509010604 | 47 | 176 | 0.0 | 2.0 | 0.00 | 0.00 | 0.00 | 94 | 1015.5 |
| 20260509010505 | 47 | 176 | 0.0 | 2.0 | 0.00 | 0.00 | 0.00 | 94 | 1015.4 |
| 20260509010400 | 47 | 176 | 1.0 | 2.0 | 0.00 | 0.00 | 0.00 | 95 | 1015.5 |
| 20260509010305 | 47 | 176 | 1.0 | 2.0 | 0.00 | 0.00 | 0.00 | 95 | 1015.5 |
| 20260509010201 | 47 | 176 | 1.0 | 2.0 | 0.00 | 0.00 | 0.00 | 95 | 1015.4 |
| 20260509010059 | 47 | 176 | 1.0 | 2.0 | 0.00 | 0.00 | 0.00 | 95 | 1015.4 |
| 20260509010006 | 47 | 176 | 1.0 | 2.0 | 0.00 | 0.00 | 0.00 | 95 | 1015.4 |
| 20260509005904 | 47 | 176 | 2.0 | 2.0 | 0.00 | 0.00 | 0.00 | 95 | 1015.5 |
| 20260509005759 | 47 | 176 | 1.0 | 2.0 | 0.00 | 0.00 | 0.00 | 94 | 1015.5 |
| 20260509005702 | 47 | 176 | 1.0 | 2.0 | 0.00 | 0.00 | 0.00 | 95 | 1015.4 |
| 20260509005602 | 47 | 176 | 1.0 | 2.0 | 0.00 | 0.00 | 0.00 | 95 | 1015.4 |
| 20260509005401 | 47 | 176 | 1.0 | 2.0 | 0.00 | 0.00 | 0.00 | 94 | 1015.4 |
| 20260509005306 | 47 | 176 | 1.0 | 2.0 | 0.00 | 0.00 | 0.00 | 94 | 1015.4 |
| 20260509005159 | 47 | 176 | 1.0 | 2.0 | 0.00 | 0.00 | 0.00 | 94 | 1015.4 |
| 20260509005101 | 47 | 176 | 1.0 | 2.0 | 0.00 | 0.00 | 0.00 | 94 | 1015.5 |
| 20260509005002 | 47 | 176 | 2.0 | 2.0 | 0.00 | 0.00 | 0.00 | 94 | 1015.4 |
| 20260509004859 | 47 | 176 | 1.0 | 2.0 | 0.00 | 0.00 | 0.00 | 94 | 1015.4 |
| 20260509004802 | 48 | 176 | 1.0 | 2.0 | 0.00 | 0.00 | 0.00 | 94 | 1015.4 |
| 20260509004659 | 48 | 176 | 1.0 | 2.0 | 0.00 | 0.00 | 0.00 | 94 | 1015.4 |
| 20260509004502 | 48 | 176 | 0.0 | 0.0 | 0.00 | 0.00 | 0.00 | 94 | 1015.4 |
| 20260509004359 | 48 | 176 | 0.0 | 0.0 | 0.00 | 0.00 | 0.00 | 94 | 1015.4 |
| 20260509004202 | 48 | 176 | 0.0 | 2.0 | 0.00 | 0.00 | 0.00 | 94 | 1015.4 |
| 20260509004059 | 48 | 176 | 0.0 | 2.0 | 0.00 | 0.00 | 0.00 | 94 | 1015.4 |
| 20260509004003 | 48 | 176 | 0.0 | 2.0 | 0.00 | 0.00 | 0.00 | 94 | 1015.4 |
| 20260509003902 | 48 | 176 | 0.0 | 2.0 | 0.00 | 0.00 | 0.00 | 94 | 1015.4 |
| 20260509003701 | 48 | 176 | 0.0 | 2.0 | 0.00 | 0.00 | 0.00 | 94 | 1015.4 |
| 20260509003603 | 48 | 176 | 0.0 | 2.0 | 0.00 | 0.00 | 0.00 | 94 | 1015.4 |
| 20260509003500 | 48 | 176 | 0.0 | 2.0 | 0.00 | 0.00 | 0.00 | 94 | 1015.4 |
| 20260509003401 | 48 | 176 | 0.0 | 2.0 | 0.00 | 0.00 | 0.00 | 94 | 1015.4 |
| 20260509003303 | 48 | 176 | 1.0 | 2.0 | 0.00 | 0.00 | 0.00 | 94 | 1015.5 |
| 20260509003159 | 48 | 176 | 2.0 | 2.0 | 0.00 | 0.00 | 0.00 | 94 | 1015.4 |
| 20260509003103 | 48 | 176 | 1.0 | 3.0 | 0.00 | 0.00 | 0.00 | 94 | 1015.4 |
| 20260509003006 | 48 | 176 | 1.0 | 3.0 | 0.00 | 0.00 | 0.00 | 94 | 1015.4 |
| 20260509002801 | 48 | 176 | 0.0 | 3.0 | 0.00 | 0.00 | 0.00 | 94 | 1015.4 |
| 20260509002704 | 48 | 176 | 1.0 | 3.0 | 0.00 | 0.00 | 0.00 | 94 | 1015.4 |
| 20260509002559 | 48 | 176 | 2.0 | 3.0 | 0.00 | 0.00 | 0.00 | 94 | 1015.5 |
| 20260509002502 | 49 | 176 | 1.0 | 3.0 | 0.00 | 0.00 | 0.00 | 94 | 1015.4 |
| 20260509002300 | 49 | 176 | 2.0 | 3.0 | 0.00 | 0.00 | 0.00 | 95 | 1015.5 |
| 20260509002102 | 49 | 176 | 2.0 | 2.0 | 0.00 | 0.00 | 0.00 | 94 | 1015.4 |
| 20260509002000 | 49 | 176 | 2.0 | 2.0 | 0.00 | 0.00 | 0.00 | 94 | 1015.5 |
| 20260509001901 | 49 | 176 | 1.0 | 2.0 | 0.00 | 0.00 | 0.00 | 94 | 1015.5 |
| 20260509001803 | 49 | 176 | 1.0 | 1.0 | 0.00 | 0.00 | 0.00 | 94 | 1015.5 |
| 20260509001659 | 49 | 176 | 1.0 | 1.0 | 0.00 | 0.00 | 0.00 | 94 | 1015.5 |
| 20260509001602 | 49 | 176 | 1.0 | 1.0 | 0.00 | 0.00 | 0.00 | 94 | 1015.4 |
| 20260509001502 | 49 | 176 | 1.0 | 1.0 | 0.00 | 0.00 | 0.00 | 94 | 1015.5 |
| 20260509001359 | 49 | 176 | 0.0 | 1.0 | 0.00 | 0.00 | 0.00 | 94 | 1015.5 |
| 20260509001301 | 49 | 176 | 1.0 | 1.0 | 0.00 | 0.00 | 0.00 | 94 | 1015.4 |
| 20260509001205 | 49 | 176 | 0.0 | 1.0 | 0.00 | 0.00 | 0.00 | 94 | 1015.4 |
| 20260509001059 | 49 | 176 | 0.0 | 1.0 | 0.00 | 0.00 | 0.00 | 94 | 1015.4 |
| 20260509001002 | 49 | 176 | 0.0 | 1.0 | 0.00 | 0.00 | 0.00 | 95 | 1015.5 |
| 20260509000901 | 49 | 176 | 1.0 | 1.0 | 0.00 | 0.00 | 0.00 | 95 | 1015.4 |
| 20260509000759 | 49 | 176 | 1.0 | 1.0 | 0.00 | 0.00 | 0.00 | 95 | 1015.5 |
| 20260509000702 | 49 | 176 | 0.0 | 1.0 | 0.00 | 0.00 | 0.00 | 94 | 1015.5 |
| 20260509000603 | 49 | 176 | 0.0 | 1.0 | 0.00 | 0.00 | 0.00 | 94 | 1015.5 |
| 20260509000500 | 49 | 176 | 0.0 | 1.0 | 0.00 | 0.00 | 0.00 | 94 | 1015.4 |
| 20260509000403 | 49 | 176 | 0.0 | 1.0 | 0.00 | 0.00 | 0.00 | 94 | 1015.5 |
| 20260509000259 | 49 | 176 | 0.0 | 1.0 | 0.00 | 0.00 | 0.00 | 94 | 1015.4 |
| 20260509000200 | 49 | 176 | 0.0 | 1.0 | 0.00 | 0.00 | 0.00 | 94 | 1015.5 |
| 20260509000136 | 49 | 176 | 1.0 | 1.0 | 0.00 | 0.00 | 0.00 | 94 | 1015.5 |
| 20260509000008 | 49 | 176 | 1.0 | 1.0 | 0.00 | 0.00 | 0.00 | 94 | 1015.4 |
| 20260508235800 | 49 | 176 | 0.0 | 2.0 | 0.00 | 0.00 | 0.00 | 94 | 1015.4 |
| 20260508235702 | 49 | 176 | 0.0 | 2.0 | 0.00 | 0.00 | 0.00 | 94 | 1015.4 |
| 20260508235559 | 49 | 176 | 0.0 | 2.0 | 0.00 | 0.00 | 0.00 | 94 | 1015.4 |
| 20260508235459 | 49 | 176 | 0.0 | 2.0 | 0.00 | 0.00 | 0.00 | 94 | 1015.4 |
| 20260508235402 | 49 | 176 | 0.0 | 2.0 | 0.00 | 0.00 | 0.00 | 94 | 1015.4 |
| 20260508235201 | 49 | 176 | 0.0 | 2.0 | 0.00 | 0.00 | 0.00 | 94 | 1015.4 |
| 20260508235102 | 49 | 176 | 0.0 | 2.0 | 0.00 | 0.00 | 0.00 | 94 | 1015.4 |
| 20260508234959 | 49 | 176 | 1.0 | 2.0 | 0.00 | 0.00 | 0.00 | 94 | 1015.4 |
| 20260508234859 | 49 | 176 | 1.0 | 2.0 | 0.00 | 0.00 | 0.00 | 94 | 1015.4 |
| 20260508234806 | 49 | 176 | 1.0 | 2.0 | 0.00 | 0.00 | 0.00 | 94 | 1015.4 |
| 20260508234700 | 49 | 176 | 1.0 | 2.0 | 0.00 | 0.00 | 0.00 | 94 | 1015.4 |
| 20260508234600 | 49 | 176 | 1.0 | 2.0 | 0.00 | 0.00 | 0.00 | 94 | 1015.4 |
| 20260508234504 | 49 | 176 | 1.0 | 2.0 | 0.00 | 0.00 | 0.00 | 94 | 1015.4 |
| 20260508234259 | 49 | 176 | 1.0 | 3.0 | 0.00 | 0.00 | 0.00 | 94 | 1015.4 |
| 20260508234201 | 49 | 176 | 2.0 | 3.0 | 0.00 | 0.00 | 0.00 | 94 | 1015.4 |
| 20260508234111 | 49 | 176 | 1.0 | 3.0 | 0.00 | 0.00 | 0.00 | 94 | 1015.4 |
| 20260508233959 | 49 | 176 | 1.0 | 3.0 | 0.00 | 0.00 | 0.00 | 94 | 1015.4 |
| 20260508233902 | 49 | 176 | 1.0 | 3.0 | 0.00 | 0.00 | 0.00 | 94 | 1015.4 |
| 20260508233802 | 49 | 176 | 0.0 | 3.0 | 0.00 | 0.00 | 0.00 | 94 | 1015.4 |
| 20260508233659 | 49 | 176 | 1.0 | 3.0 | 0.00 | 0.00 | 0.00 | 94 | 1015.4 |
| 20260508233601 | 49 | 176 | 1.0 | 3.0 | 0.00 | 0.00 | 0.00 | 94 | 1015.4 |
| 20260508233503 | 49 | 176 | 2.0 | 3.0 | 0.00 | 0.00 | 0.00 | 94 | 1015.4 |
| 20260508233400 | 49 | 176 | 2.0 | 3.0 | 0.00 | 0.00 | 0.00 | 94 | 1015.5 |
| 20260508233301 | 49 | 176 | 2.0 | 3.0 | 0.00 | 0.00 | 0.00 | 94 | 1015.4 |
| 20260508233202 | 49 | 176 | 2.0 | 3.0 | 0.00 | 0.00 | 0.00 | 94 | 1015.5 |
| 20260508233059 | 49 | 176 | 1.0 | 2.0 | 0.00 | 0.00 | 0.00 | 94 | 1015.5 |
| 20260508233002 | 49 | 176 | 1.0 | 2.0 | 0.00 | 0.00 | 0.00 | 94 | 1015.5 |
| 20260508232800 | 49 | 176 | 0.0 | 2.0 | 0.00 | 0.00 | 0.00 | 94 | 1015.5 |
| 20260508232701 | 49 | 176 | 0.0 | 3.0 | 0.00 | 0.00 | 0.00 | 94 | 1015.5 |
| 20260508232602 | 50 | 176 | 0.0 | 3.0 | 0.00 | 0.00 | 0.00 | 94 | 1015.5 |
| 20260508232459 | 50 | 176 | 0.0 | 3.0 | 0.00 | 0.00 | 0.00 | 94 | 1015.4 |
| 20260508232359 | 50 | 176 | 0.0 | 3.0 | 0.00 | 0.00 | 0.00 | 94 | 1015.5 |
| 20260508232206 | 50 | 176 | 2.0 | 3.0 | 0.00 | 0.00 | 0.00 | 94 | 1015.4 |
| 20260508232100 | 50 | 176 | 2.0 | 3.0 | 0.00 | 0.00 | 0.00 | 94 | 1015.4 |
| 20260508231859 | 50 | 176 | 2.0 | 3.0 | 0.00 | 0.00 | 0.00 | 94 | 1015.5 |
| 20260508231759 | 50 | 176 | 2.0 | 3.0 | 0.00 | 0.00 | 0.00 | 94 | 1015.5 |
| 20260508231714 | 50 | 176 | 2.0 | 3.0 | 0.00 | 0.00 | 0.00 | 94 | 1015.5 |
| 20260508231559 | 50 | 254 | 1.0 | 2.0 | 0.00 | 0.00 | 0.00 | 94 | 1015.6 |
| 20260508231500 | 50 | 254 | 2.0 | 2.0 | 0.00 | 0.00 | 0.00 | 93 | 1015.6 |
| 20260508231259 | 50 | 254 | 1.0 | 2.0 | 0.00 | 0.00 | 0.00 | 94 | 1015.6 |
| 20260508231200 | 50 | 254 | 1.0 | 2.0 | 0.00 | 0.00 | 0.00 | 94 | 1015.6 |
| 20260508230959 | 50 | 254 | 1.0 | 2.0 | 0.00 | 0.00 | 0.00 | 94 | 1015.5 |
| 20260508230859 | 50 | 254 | 1.0 | 2.0 | 0.00 | 0.00 | 0.00 | 94 | 1015.6 |
| 20260508230802 | 50 | 254 | 0.0 | 2.0 | 0.00 | 0.00 | 0.00 | 94 | 1015.5 |
| 20260508230659 | 50 | 254 | 2.0 | 2.0 | 0.00 | 0.00 | 0.00 | 94 | 1015.5 |
| 20260508230559 | 50 | 254 | 1.0 | 2.0 | 0.00 | 0.00 | 0.00 | 94 | 1015.5 |
| 20260508230505 | 50 | 254 | 1.0 | 1.0 | 0.00 | 0.00 | 0.00 | 94 | 1015.5 |
| 20260508230400 | 50 | 254 | 0.0 | 1.0 | 0.00 | 0.00 | 0.00 | 94 | 1015.5 |
| 20260508230300 | 51 | 254 | 0.0 | 1.0 | 0.00 | 0.00 | 0.00 | 94 | 1015.6 |
| 20260508230203 | 51 | 254 | 0.0 | 1.0 | 0.00 | 0.00 | 0.00 | 94 | 1015.6 |
| 20260508230002 | 51 | 254 | 0.0 | 3.0 | 0.00 | 0.00 | 0.00 | 94 | 1015.6 |
| 20260508225906 | 51 | 254 | 0.0 | 3.0 | 0.00 | 0.00 | 0.00 | 94 | 1015.6 |
| 20260508225759 | 51 | 254 | 0.0 | 3.0 | 0.00 | 0.00 | 0.00 | 94 | 1015.5 |
| 20260508225659 | 51 | 254 | 0.0 | 3.0 | 0.00 | 0.00 | 0.00 | 94 | 1015.5 |
| 20260508225603 | 51 | 254 | 0.0 | 3.0 | 0.00 | 0.00 | 0.00 | 94 | 1015.5 |
| 20260508225459 | 51 | 254 | 1.0 | 3.0 | 0.00 | 0.00 | 0.00 | 94 | 1015.6 |
| 20260508225400 | 51 | 254 | 1.0 | 3.0 | 0.00 | 0.00 | 0.00 | 94 | 1015.6 |
| 20260508225301 | 51 | 254 | 1.0 | 3.0 | 0.00 | 0.00 | 0.00 | 94 | 1015.5 |
| 20260508225159 | 51 | 254 | 0.0 | 3.0 | 0.00 | 0.00 | 0.00 | 94 | 1015.6 |
| 20260508225059 | 51 | 260 | 2.0 | 3.0 | 0.00 | 0.00 | 0.00 | 93 | 1015.6 |
| 20260508225002 | 51 | 251 | 3.0 | 3.0 | 0.00 | 0.00 | 0.00 | 93 | 1015.5 |
| 20260508224859 | 51 | 249 | 2.0 | 3.0 | 0.00 | 0.00 | 0.00 | 94 | 1015.6 |
| 20260508224702 | 51 | 249 | 3.0 | 3.0 | 0.00 | 0.00 | 0.00 | 93 | 1015.5 |
| 20260508224459 | 51 | 249 | 3.0 | 3.0 | 0.00 | 0.00 | 0.00 | 93 | 1015.6 |
| 20260508224259 | 51 | 111 | 3.0 | 3.0 | 0.00 | 0.00 | 0.00 | 93 | 1015.6 |
| 20260508224102 | 51 | 111 | 3.0 | 3.0 | 0.00 | 0.00 | 0.00 | 94 | 1015.5 |
| 20260508224000 | 51 | 111 | 3.0 | 3.0 | 0.00 | 0.00 | 0.00 | 94 | 1015.5 |
| 20260508223802 | 51 | 111 | 1.0 | 3.0 | 0.00 | 0.00 | 0.00 | 93 | 1015.5 |
| 20260508223659 | 51 | 111 | 2.0 | 3.0 | 0.00 | 0.00 | 0.00 | 93 | 1015.6 |
| 20260508223559 | 51 | 111 | 2.0 | 3.0 | 0.00 | 0.00 | 0.00 | 93 | 1015.5 |
| 20260508223502 | 52 | 111 | 2.0 | 3.0 | 0.00 | 0.00 | 0.00 | 93 | 1015.5 |
| 20260508223259 | 52 | 111 | 1.0 | 4.0 | 0.00 | 0.00 | 0.00 | 93 | 1015.5 |
| 20260508222903 | 52 | 111 | 0.0 | 4.0 | 0.00 | 0.00 | 0.00 | 94 | 1015.5 |
| 20260508222700 | 52 | 111 | 0.0 | 4.0 | 0.00 | 0.00 | 0.00 | 94 | 1015.5 |
| 20260508222602 | 52 | 111 | 2.0 | 4.0 | 0.00 | 0.00 | 0.00 | 94 | 1015.5 |
| 20260508222459 | 52 | 111 | 2.0 | 4.0 | 0.00 | 0.00 | 0.00 | 94 | 1015.5 |
| 20260508222359 | 52 | 111 | 2.0 | 4.0 | 0.00 | 0.00 | 0.00 | 94 | 1015.5 |
| 20260508222200 | 52 | 111 | 3.0 | 3.0 | 0.00 | 0.00 | 0.00 | 94 | 1015.5 |
| 20260508222059 | 52 | 111 | 3.0 | 3.0 | 0.00 | 0.00 | 0.00 | 94 | 1015.5 |
| 20260508221859 | 52 | 111 | 2.0 | 3.0 | 0.00 | 0.00 | 0.00 | 93 | 1015.4 |
| 20260508221701 | 52 | 111 | 3.0 | 3.0 | 0.00 | 0.00 | 0.00 | 93 | 1015.4 |
| 20260508221559 | 52 | 111 | 2.0 | 3.0 | 0.00 | 0.00 | 0.00 | 93 | 1015.4 |
| 20260508221459 | 52 | 111 | 2.0 | 3.0 | 0.00 | 0.00 | 0.00 | 93 | 1015.4 |
| 20260508221300 | 52 | 111 | 2.0 | 3.0 | 0.00 | 0.00 | 0.00 | 93 | 1015.4 |
| 20260508221159 | 52 | 111 | 2.0 | 3.0 | 0.00 | 0.00 | 0.00 | 93 | 1015.4 |
| 20260508221102 | 52 | 111 | 1.0 | 3.0 | 0.00 | 0.00 | 0.00 | 93 | 1015.4 |
| 20260508221000 | 52 | 111 | 1.0 | 3.0 | 0.00 | 0.00 | 0.00 | 93 | 1015.4 |
| 20260508220858 | 52 | 111 | 2.0 | 3.0 | 0.00 | 0.00 | 0.00 | 93 | 1015.4 |
| 20260508220804 | 52 | 111 | 2.0 | 3.0 | 0.00 | 0.00 | 0.00 | 93 | 1015.4 |
| 20260508220559 | 52 | 111 | 1.0 | 3.0 | 0.00 | 0.00 | 0.00 | 93 | 1015.4 |
| 20260508220501 | 52 | 111 | 1.0 | 3.0 | 0.00 | 0.00 | 0.00 | 93 | 1015.4 |
| 20260508220415 | 52 | 111 | 1.0 | 3.0 | 0.00 | 0.00 | 0.00 | 93 | 1015.4 |
| 20260508220259 | 52 | 111 | 1.0 | 3.0 | 0.00 | 0.00 | 0.00 | 93 | 1015.4 |
| 20260508220200 | 52 | 111 | 1.0 | 2.0 | 0.00 | 0.00 | 0.00 | 93 | 1015.4 |
| 20260508220119 | 52 | 111 | 1.0 | 2.0 | 0.00 | 0.00 | 0.00 | 93 | 1015.4 |
| 20260508220007 | 52 | 111 | 1.0 | 2.0 | 0.00 | 0.00 | 0.00 | 93 | 1015.4 |
| 20260508215900 | 52 | 111 | 1.0 | 2.0 | 0.00 | 0.00 | 0.00 | 93 | 1015.3 |
| 20260508215802 | 52 | 111 | 0.0 | 2.0 | 0.00 | 0.00 | 0.00 | 93 | 1015.4 |
| 20260508215700 | 52 | 111 | 1.0 | 2.0 | 0.00 | 0.00 | 0.00 | 92 | 1015.3 |
| 20260508215601 | 52 | 111 | 1.0 | 2.0 | 0.00 | 0.00 | 0.00 | 92 | 1015.3 |
| 20260508215503 | 52 | 111 | 0.0 | 2.0 | 0.00 | 0.00 | 0.00 | 93 | 1015.3 |
| 20260508215202 | 52 | 111 | 1.0 | 2.0 | 0.00 | 0.00 | 0.00 | 93 | 1015.3 |
| 20260508215101 | 52 | 111 | 0.0 | 2.0 | 0.00 | 0.00 | 0.00 | 93 | 1015.3 |
| 20260508214907 | 52 | 111 | 1.0 | 2.0 | 0.00 | 0.00 | 0.00 | 93 | 1015.3 |
| 20260508214703 | 52 | 111 | 2.0 | 3.0 | 0.00 | 0.00 | 0.00 | 93 | 1015.3 |
| 20260508214607 | 52 | 111 | 1.0 | 3.0 | 0.00 | 0.00 | 0.00 | 93 | 1015.3 |
| 20260508214507 | 53 | 111 | 1.0 | 3.0 | 0.00 | 0.00 | 0.00 | 92 | 1015.2 |
| 20260508214401 | 53 | 111 | 0.0 | 3.0 | 0.00 | 0.00 | 0.00 | 92 | 1015.3 |
| 20260508214103 | 53 | 111 | 1.0 | 3.0 | 0.00 | 0.00 | 0.00 | 92 | 1015.2 |
| 20260508214001 | 53 | 111 | 1.0 | 3.0 | 0.00 | 0.00 | 0.00 | 92 | 1015.3 |
| 20260508213900 | 53 | 111 | 2.0 | 3.0 | 0.00 | 0.00 | 0.00 | 92 | 1015.2 |
| 20260508213805 | 53 | 111 | 2.0 | 3.0 | 0.00 | 0.00 | 0.00 | 92 | 1015.2 |
| 20260508213700 | 53 | 111 | 2.0 | 2.0 | 0.00 | 0.00 | 0.00 | 92 | 1015.2 |
| 20260508213603 | 53 | 111 | 0.0 | 2.0 | 0.00 | 0.00 | 0.00 | 92 | 1015.2 |
| 20260508213504 | 53 | 111 | 1.0 | 2.0 | 0.00 | 0.00 | 0.00 | 92 | 1015.2 |
| 20260508213400 | 53 | 111 | 1.0 | 2.0 | 0.00 | 0.00 | 0.00 | 92 | 1015.2 |
| 20260508213300 | 53 | 111 | 2.0 | 2.0 | 0.00 | 0.00 | 0.00 | 92 | 1015.2 |
| 20260508213202 | 53 | 111 | 1.0 | 2.0 | 0.00 | 0.00 | 0.00 | 92 | 1015.2 |
| 20260508213100 | 53 | 111 | 1.0 | 2.0 | 0.00 | 0.00 | 0.00 | 92 | 1015.2 |
| 20260508213000 | 54 | 111 | 0.0 | 2.0 | 0.00 | 0.00 | 0.00 | 92 | 1015.2 |
| 20260508212905 | 53 | 111 | 1.0 | 2.0 | 0.00 | 0.00 | 0.00 | 92 | 1015.2 |
| 20260508212700 | 54 | 111 | 1.0 | 2.0 | 0.00 | 0.00 | 0.00 | 93 | 1015.2 |
| 20260508212602 | 54 | 111 | 1.0 | 2.0 | 0.00 | 0.00 | 0.00 | 92 | 1015.2 |
| 20260508212500 | 54 | 111 | 1.0 | 2.0 | 0.00 | 0.00 | 0.00 | 92 | 1015.2 |
| 20260508212401 | 54 | 111 | 2.0 | 2.0 | 0.00 | 0.00 | 0.00 | 92 | 1015.2 |
| 20260508212306 | 54 | 111 | 1.0 | 2.0 | 0.00 | 0.00 | 0.00 | 92 | 1015.2 |
| 20260508212200 | 54 | 111 | 0.0 | 2.0 | 0.00 | 0.00 | 0.00 | 92 | 1015.2 |
| 20260508212101 | 54 | 111 | 0.0 | 2.0 | 0.00 | 0.00 | 0.00 | 92 | 1015.2 |
| 20260508212005 | 54 | 111 | 1.0 | 3.0 | 0.00 | 0.00 | 0.00 | 92 | 1015.2 |
| 20260508211900 | 54 | 111 | 1.0 | 3.0 | 0.00 | 0.00 | 0.00 | 92 | 1015.2 |
| 20260508211800 | 54 | 111 | 0.0 | 3.0 | 0.00 | 0.00 | 0.00 | 92 | 1015.2 |
| 20260508211703 | 54 | 111 | 0.0 | 3.0 | 0.00 | 0.00 | 0.00 | 92 | 1015.2 |
| 20260508211559 | 54 | 111 | 1.0 | 3.0 | 0.00 | 0.00 | 0.00 | 92 | 1015.2 |
| 20260508211501 | 54 | 111 | 1.0 | 3.0 | 0.00 | 0.00 | 0.00 | 92 | 1015.1 |
| 20260508211403 | 54 | 111 | 1.0 | 3.0 | 0.00 | 0.00 | 0.00 | 92 | 1015.1 |
| 20260508211259 | 54 | 111 | 1.0 | 3.0 | 0.00 | 0.00 | 0.00 | 92 | 1015.1 |
| 20260508211200 | 54 | 111 | 0.0 | 3.0 | 0.00 | 0.00 | 0.00 | 92 | 1015.2 |
| 20260508211104 | 54 | 111 | 1.0 | 3.0 | 0.00 | 0.00 | 0.00 | 92 | 1015.1 |
| 20260508211000 | 54 | 111 | 2.0 | 3.0 | 0.00 | 0.00 | 0.00 | 92 | 1015.1 |
| 20260508210803 | 54 | 111 | 2.0 | 3.0 | 0.00 | 0.00 | 0.00 | 92 | 1015.2 |
| 20260508210700 | 54 | 111 | 2.0 | 3.0 | 0.00 | 0.00 | 0.00 | 92 | 1015.1 |
| 20260508210600 | 54 | 111 | 1.0 | 2.0 | 0.00 | 0.00 | 0.00 | 92 | 1015.1 |
| 20260508210503 | 54 | 111 | 1.0 | 2.0 | 0.00 | 0.00 | 0.00 | 92 | 1015.1 |
| 20260508210300 | 54 | 111 | 1.0 | 2.0 | 0.00 | 0.00 | 0.00 | 91 | 1015.1 |
| 20260508210203 | 55 | 111 | 2.0 | 2.0 | 0.00 | 0.00 | 0.00 | 91 | 1015.2 |
| 20260508210006 | 55 | 111 | 0.0 | 1.0 | 0.00 | 0.00 | 0.00 | 91 | 1015.1 |
| 20260508205902 | 55 | 111 | 0.0 | 1.0 | 0.00 | 0.00 | 0.00 | 91 | 1015.1 |
| 20260508205759 | 55 | 111 | 0.0 | 1.0 | 0.00 | 0.00 | 0.00 | 91 | 1015.0 |
| 20260508205700 | 55 | 111 | 0.0 | 1.0 | 0.00 | 0.00 | 0.00 | 91 | 1015.1 |
| 20260508205603 | 55 | 111 | 0.0 | 1.0 | 0.00 | 0.00 | 0.00 | 91 | 1015.1 |
| 20260508205400 | 55 | 111 | 0.0 | 1.0 | 0.00 | 0.00 | 0.00 | 91 | 1015.1 |
| 20260508205305 | 55 | 111 | 0.0 | 0.0 | 0.00 | 0.00 | 0.00 | 91 | 1015.1 |
| 20260508205100 | 55 | 111 | 0.0 | 2.0 | 0.00 | 0.00 | 0.00 | 91 | 1015.1 |
| 20260508205006 | 55 | 111 | 0.0 | 2.0 | 0.00 | 0.00 | 0.00 | 91 | 1015.1 |
| 20260508204904 | 55 | 111 | 0.0 | 2.0 | 0.00 | 0.00 | 0.00 | 91 | 1015.0 |
| 20260508204705 | 55 | 111 | 0.0 | 2.0 | 0.00 | 0.00 | 0.00 | 91 | 1015.0 |
| 20260508204600 | 56 | 111 | 0.0 | 2.0 | 0.00 | 0.00 | 0.00 | 91 | 1015.1 |
| 20260508204500 | 56 | 111 | 0.0 | 2.0 | 0.00 | 0.00 | 0.00 | 91 | 1015.0 |
| 20260508204403 | 56 | 111 | 0.0 | 2.0 | 0.00 | 0.00 | 0.00 | 91 | 1015.0 |
| 20260508204300 | 56 | 111 | 0.0 | 2.0 | 0.00 | 0.00 | 0.00 | 91 | 1015.0 |
| 20260508204200 | 56 | 111 | 1.0 | 2.0 | 0.00 | 0.00 | 0.00 | 91 | 1015.0 |
| 20260508204109 | 56 | 111 | 1.0 | 2.0 | 0.00 | 0.00 | 0.00 | 91 | 1015.0 |
| 20260508204002 | 56 | 111 | 2.0 | 2.0 | 0.00 | 0.00 | 0.00 | 91 | 1015.0 |
| 20260508203900 | 56 | 111 | 1.0 | 3.0 | 0.00 | 0.00 | 0.00 | 91 | 1015.0 |
| 20260508203803 | 56 | 111 | 2.0 | 3.0 | 0.00 | 0.00 | 0.00 | 91 | 1015.0 |
| 20260508203601 | 56 | 111 | 1.0 | 3.0 | 0.00 | 0.00 | 0.00 | 91 | 1015.0 |
| 20260508203504 | 56 | 111 | 2.0 | 3.0 | 0.00 | 0.00 | 0.00 | 91 | 1015.0 |
| 20260508203300 | 56 | 111 | 2.0 | 3.0 | 0.00 | 0.00 | 0.00 | 91 | 1015.0 |
| 20260508203204 | 56 | 111 | 1.0 | 3.0 | 0.00 | 0.00 | 0.00 | 91 | 1015.0 |
| 20260508203101 | 57 | 111 | 2.0 | 3.0 | 0.00 | 0.00 | 0.00 | 91 | 1015.1 |
| 20260508203001 | 57 | 111 | 1.0 | 3.0 | 0.00 | 0.00 | 0.00 | 91 | 1015.0 |
| 20260508202904 | 57 | 111 | 3.0 | 3.0 | 0.00 | 0.00 | 0.00 | 91 | 1015.0 |
| 20260508202801 | 57 | 111 | 2.0 | 3.0 | 0.00 | 0.00 | 0.00 | 91 | 1015.0 |
| 20260508202700 | 57 | 111 | 2.0 | 3.0 | 0.00 | 0.00 | 0.00 | 91 | 1015.0 |
| 20260508202603 | 57 | 111 | 1.0 | 3.0 | 0.00 | 0.00 | 0.00 | 91 | 1015.0 |
| 20260508202359 | 57 | 111 | 1.0 | 3.0 | 0.00 | 0.00 | 0.00 | 91 | 1015.0 |
| 20260508202200 | 57 | 111 | 2.0 | 3.0 | 0.00 | 0.00 | 0.00 | 91 | 1015.0 |
| 20260508202059 | 57 | 111 | 2.0 | 3.0 | 0.00 | 0.00 | 0.00 | 91 | 1014.9 |
| 20260508202008 | 57 | 111 | 2.0 | 3.0 | 0.00 | 0.00 | 0.00 | 91 | 1014.9 |
| 20260508201900 | 57 | 111 | 2.0 | 3.0 | 0.00 | 0.00 | 0.00 | 91 | 1015.0 |
| 20260508201801 | 57 | 111 | 2.0 | 3.0 | 0.00 | 0.00 | 0.00 | 91 | 1015.0 |
| 20260508201707 | 57 | 111 | 1.0 | 3.0 | 0.00 | 0.00 | 0.00 | 91 | 1015.0 |
| 20260508201601 | 57 | 111 | 1.0 | 3.0 | 0.00 | 0.00 | 0.00 | 91 | 1015.0 |
| 20260508201403 | 57 | 111 | 1.0 | 3.0 | 0.00 | 0.00 | 0.00 | 91 | 1015.0 |
| 20260508201300 | 57 | 111 | 2.0 | 3.0 | 0.00 | 0.00 | 0.00 | 91 | 1015.0 |
| 20260508201205 | 57 | 111 | 2.0 | 3.0 | 0.00 | 0.00 | 0.00 | 91 | 1015.0 |
| 20260508201103 | 57 | 111 | 2.0 | 3.0 | 0.00 | 0.00 | 0.00 | 91 | 1015.0 |
| 20260508200900 | 57 | 111 | 2.0 | 3.0 | 0.00 | 0.00 | 0.00 | 91 | 1015.0 |
| 20260508200804 | 57 | 111 | 1.0 | 2.0 | 0.00 | 0.00 | 0.00 | 90 | 1015.0 |
| 20260508200702 | 57 | 111 | 2.0 | 2.0 | 0.00 | 0.00 | 0.00 | 90 | 1015.0 |
| 20260508200600 | 57 | 111 | 2.0 | 2.0 | 0.00 | 0.00 | 0.00 | 90 | 1015.1 |
| 20260508200504 | 57 | 111 | 2.0 | 2.0 | 0.00 | 0.00 | 0.00 | 90 | 1015.1 |
| 20260508200400 | 58 | 111 | 1.0 | 3.0 | 0.00 | 0.00 | 0.00 | 90 | 1015.0 |
| 20260508200300 | 58 | 111 | 2.0 | 3.0 | 0.00 | 0.00 | 0.00 | 90 | 1015.1 |
| 20260508200203 | 58 | 111 | 2.0 | 3.0 | 0.00 | 0.00 | 0.00 | 90 | 1015.0 |
| 20260508200005 | 58 | 111 | 0.0 | 3.0 | 0.00 | 0.00 | 0.00 | 90 | 1015.0 |
| 20260508195904 | 58 | 111 | 0.0 | 3.0 | 0.00 | 0.00 | 0.00 | 90 | 1015.0 |
| 20260508195801 | 58 | 111 | 0.0 | 3.0 | 0.00 | 0.00 | 0.00 | 90 | 1015.0 |
| 20260508195606 | 58 | 111 | 1.0 | 3.0 | 0.00 | 0.00 | 0.00 | 90 | 1014.9 |
| 20260508195500 | 58 | 111 | 2.0 | 3.0 | 0.00 | 0.00 | 0.00 | 90 | 1014.9 |
| 20260508195359 | 58 | 111 | 2.0 | 2.0 | 0.00 | 0.00 | 0.00 | 90 | 1014.8 |
| 20260508195306 | 58 | 111 | 2.0 | 2.0 | 0.00 | 0.00 | 0.00 | 90 | 1014.9 |
| 20260508195201 | 58 | 111 | 1.0 | 2.0 | 0.00 | 0.00 | 0.00 | 90 | 1014.9 |
| 20260508195003 | 58 | 111 | 1.0 | 2.0 | 0.00 | 0.00 | 0.00 | 90 | 1014.8 |
| 20260508194900 | 58 | 111 | 1.0 | 2.0 | 0.00 | 0.00 | 0.00 | 90 | 1014.9 |
| 20260508194800 | 58 | 111 | 1.0 | 2.0 | 0.00 | 0.00 | 0.00 | 90 | 1014.8 |
| 20260508194703 | 58 | 111 | 0.0 | 2.0 | 0.00 | 0.00 | 0.00 | 90 | 1014.8 |
| 20260508194600 | 58 | 111 | 1.0 | 2.0 | 0.00 | 0.00 | 0.00 | 89 | 1014.8 |
| 20260508194500 | 58 | 111 | 2.0 | 2.0 | 0.00 | 0.00 | 0.00 | 89 | 1014.8 |
| 20260508194402 | 58 | 111 | 2.0 | 2.0 | 0.00 | 0.00 | 0.00 | 89 | 1014.8 |
| 20260508194303 | 58 | 111 | 2.0 | 2.0 | 0.00 | 0.00 | 0.00 | 89 | 1014.8 |
| 20260508194200 | 58 | 111 | 1.0 | 2.0 | 0.00 | 0.00 | 0.00 | 89 | 1014.7 |
| 20260508194103 | 58 | 111 | 2.0 | 2.0 | 0.00 | 0.00 | 0.00 | 89 | 1014.8 |
| 20260508194009 | 58 | 111 | 1.0 | 2.0 | 0.00 | 0.00 | 0.00 | 89 | 1014.8 |
| 20260508193901 | 58 | 111 | 2.0 | 2.0 | 0.00 | 0.00 | 0.00 | 89 | 1014.8 |
| 20260508193803 | 58 | 111 | 2.0 | 2.0 | 0.00 | 0.00 | 0.00 | 89 | 1014.8 |
| 20260508193659 | 58 | 111 | 1.0 | 2.0 | 0.00 | 0.00 | 0.00 | 89 | 1014.7 |
| 20260508193600 | 59 | 111 | 1.0 | 2.0 | 0.00 | 0.00 | 0.00 | 88 | 1014.7 |
| 20260508193503 | 59 | 111 | 1.0 | 2.0 | 0.00 | 0.00 | 0.00 | 88 | 1014.8 |
| 20260508193400 | 59 | 111 | 1.0 | 2.0 | 0.00 | 0.00 | 0.00 | 88 | 1014.7 |
| 20260508193259 | 59 | 111 | 0.0 | 2.0 | 0.00 | 0.00 | 0.00 | 88 | 1014.7 |
| 20260508193008 | 59 | 111 | 1.0 | 3.0 | 0.00 | 0.00 | 0.00 | 88 | 1014.6 |
| 20260508192902 | 59 | 111 | 2.0 | 3.0 | 0.00 | 0.00 | 0.00 | 88 | 1014.6 |
| 20260508192801 | 59 | 111 | 2.0 | 3.0 | 0.00 | 0.00 | 0.00 | 88 | 1014.6 |
| 20260508192700 | 59 | 111 | 2.0 | 3.0 | 0.00 | 0.00 | 0.00 | 87 | 1014.6 |
| 20260508192603 | 59 | 111 | 2.0 | 3.0 | 0.00 | 0.00 | 0.00 | 87 | 1014.6 |
| 20260508192501 | 59 | 111 | 1.0 | 3.0 | 0.00 | 0.00 | 0.00 | 87 | 1014.6 |
| 20260508192400 | 59 | 111 | 2.0 | 3.0 | 0.00 | 0.00 | 0.00 | 87 | 1014.6 |
| 20260508192306 | 59 | 111 | 2.0 | 3.0 | 0.00 | 0.00 | 0.00 | 87 | 1014.6 |
| 20260508192200 | 59 | 111 | 2.0 | 3.0 | 0.00 | 0.00 | 0.00 | 87 | 1014.6 |
| 20260508192059 | 59 | 111 | 2.0 | 3.0 | 0.00 | 0.00 | 0.00 | 87 | 1014.6 |
| 20260508191800 | 60 | 111 | 3.0 | 3.0 | 0.00 | 0.00 | 0.00 | 87 | 1014.5 |
| 20260508191703 | 60 | 111 | 2.0 | 2.0 | 0.00 | 0.00 | 0.00 | 87 | 1014.5 |
| 20260508191600 | 60 | 111 | 1.0 | 2.0 | 0.00 | 0.00 | 0.00 | 87 | 1014.5 |
| 20260508191402 | 60 | 111 | 1.0 | 3.0 | 0.00 | 0.00 | 0.00 | 87 | 1014.5 |
| 20260508191102 | 60 | 111 | 2.0 | 3.0 | 0.00 | 0.00 | 0.00 | 86 | 1014.4 |
| 20260508191000 | 60 | 111 | 1.0 | 3.0 | 0.00 | 0.00 | 0.00 | 86 | 1014.4 |
| 20260508190900 | 60 | 111 | 2.0 | 3.0 | 0.00 | 0.00 | 0.00 | 86 | 1014.4 |
| 20260508190803 | 60 | 111 | 1.0 | 3.0 | 0.00 | 0.00 | 0.00 | 86 | 1014.4 |
| 20260508190601 | 60 | 111 | 1.0 | 3.0 | 0.00 | 0.00 | 0.00 | 86 | 1014.4 |
| 20260508190505 | 60 | 111 | 2.0 | 3.0 | 0.00 | 0.00 | 0.00 | 86 | 1014.4 |
| 20260508190359 | 60 | 111 | 1.0 | 3.0 | 0.00 | 0.00 | 0.00 | 85 | 1014.4 |
| 20260508190300 | 60 | 111 | 2.0 | 3.0 | 0.00 | 0.00 | 0.00 | 85 | 1014.4 |
| 20260508190203 | 60 | 111 | 3.0 | 3.0 | 0.00 | 0.00 | 0.00 | 85 | 1014.4 |
| 20260508185909 | 61 | 111 | 2.0 | 3.0 | 0.00 | 0.00 | 0.00 | 84 | 1014.3 |
| 20260508185800 | 61 | 111 | 2.0 | 2.0 | 0.00 | 0.00 | 0.00 | 84 | 1014.3 |
| 20260508185700 | 61 | 111 | 1.0 | 3.0 | 0.00 | 0.00 | 0.00 | 84 | 1014.3 |
| 20260508185605 | 61 | 111 | 2.0 | 3.0 | 0.00 | 0.00 | 0.00 | 84 | 1014.3 |
| 20260508185500 | 61 | 111 | 2.0 | 4.0 | 0.00 | 0.00 | 0.00 | 84 | 1014.2 |